GEFSSGP_prec_meanprecacc_276.txt.gz
Total_Precipitation_Accumulation
0.10 0.24 0.59 0.98 1.55 1.82 1.41 0.74 0.56 0.41 0.40 0.52 0.52 0.43 0.48 0.67 1.00 1.74 1.65 1.68 1.43 1.31 1.37 1.58 1.83 1.70 1.49 1.41 1.49 1.56 1.47 1.46 1.48 1.54 1.51 1.65 1.64 1.49 1.49 1.64 1.75 1.93 2.14 2.08 1.90 1.75 1.56 1.40 1.22
0.19 0.37 0.77 1.23 1.82 1.99 1.28 0.59 0.44 0.36 0.44 0.51 0.43 0.37 0.48 0.54 0.59 0.94 1.41 1.57 1.20 1.01 1.07 1.17 1.41 1.39 1.29 1.23 1.25 1.26 1.30 1.32 1.40 1.52 1.46 1.50 1.49 1.42 1.45 1.63 1.72 1.87 1.85 1.66 1.64 1.55 1.38 1.16 1.04
0.28 0.48 0.86 1.21 1.34 1.33 0.75 0.37 0.33 0.33 0.46 0.50 0.44 0.41 0.54 0.75 0.85 1.10 1.19 1.15 0.97 0.87 0.93 1.04 1.14 1.12 1.12 1.13 1.12 1.10 1.15 1.25 1.36 1.40 1.41 1.47 1.43 1.43 1.51 1.63 1.76 1.73 1.57 1.50 1.50 1.36 1.24 0.98 0.86
0.36 0.57 0.80 0.91 0.87 0.68 0.41 0.29 0.29 0.33 0.47 0.44 0.42 0.61 0.82 1.00 0.90 0.96 0.93 0.88 0.77 0.77 0.83 0.94 0.93 0.83 0.90 0.98 0.97 1.01 1.09 1.26 1.34 1.29 1.40 1.49 1.54 1.53 1.56 1.60 1.62 1.51 1.37 1.37 1.23 1.12 1.04 0.86 0.79
0.41 0.69 0.90 0.82 0.65 0.45 0.35 0.30 0.30 0.31 0.32 0.42 0.53 0.88 1.18 1.19 0.85 0.88 0.90 0.75 0.60 0.68 0.75 0.77 0.79 0.74 0.79 0.89 0.90 0.97 1.14 1.35 1.39 1.32 1.35 1.41 1.49 1.52 1.47 1.39 1.36 1.34 1.22 1.12 1.06 1.03 0.91 0.85 0.82
0.52 0.64 0.66 0.58 0.44 0.31 0.34 0.31 0.28 0.29 0.37 0.47 0.61 0.76 1.26 1.22 0.95 1.08 0.98 0.84 0.68 0.69 0.73 0.77 0.83 0.80 0.81 0.89 0.92 1.01 1.25 1.47 1.44 1.34 1.33 1.32 1.31 1.31 1.26 1.21 1.21 1.20 1.10 1.01 0.97 0.94 0.86 0.82 0.81
0.35 0.43 0.44 0.36 0.30 0.26 0.25 0.24 0.26 0.29 0.46 0.58 0.66 0.90 1.41 1.51 1.15 1.07 1.10 1.06 0.85 0.84 0.96 0.97 0.88 0.92 1.04 1.16 1.23 1.31 1.51 1.57 1.47 1.44 1.36 1.30 1.23 1.20 1.22 1.18 1.16 1.13 1.06 1.02 0.92 0.85 0.79 0.78 0.80
0.19 0.22 0.23 0.19 0.17 0.22 0.18 0.19 0.23 0.30 0.46 0.62 0.77 1.06 1.58 1.54 1.22 1.14 1.18 1.32 1.11 1.00 1.00 1.03 0.94 0.95 1.01 1.27 1.64 1.68 1.63 1.60 1.56 1.48 1.41 1.29 1.17 1.17 1.20 1.11 1.24 1.19 1.18 1.16 1.10 0.99 0.86 0.86 0.92
0.12 0.19 0.17 0.13 0.10 0.14 0.14 0.16 0.23 0.33 0.48 0.60 0.87 1.08 1.20 1.10 1.21 1.23 1.38 1.65 1.63 1.38 1.29 1.19 0.96 1.03 1.22 1.49 1.66 1.69 1.67 1.72 1.80 1.73 1.60 1.58 1.65 1.59 1.69 1.46 1.68 1.56 1.53 1.45 1.41 1.31 1.26 1.20 1.07
0.11 0.16 0.13 0.08 0.08 0.10 0.11 0.15 0.25 0.48 0.68 0.97 1.23 1.20 0.99 0.97 1.24 1.40 1.60 1.92 2.00 1.89 1.71 1.47 1.26 1.28 1.51 1.54 1.50 1.59 1.62 1.73 1.82 1.96 1.90 2.19 2.45 2.32 1.81 1.97 2.25 2.21 2.11 1.99 2.00 2.12 1.88 1.58 1.38
0.08 0.08 0.07 0.08 0.07 0.08 0.08 0.14 0.20 0.36 0.86 1.39 1.64 1.56 1.35 1.17 1.40 1.75 2.07 2.40 2.22 2.01 1.92 1.84 1.68 1.67 1.59 1.62 1.58 1.74 1.89 2.21 2.08 2.01 2.06 2.50 2.35 2.07 1.90 2.14 2.48 2.74 2.57 2.43 2.52 2.63 2.19 2.24 2.46
0.05 0.04 0.03 0.05 0.05 0.05 0.08 0.13 0.24 0.37 0.85 1.13 1.34 1.43 1.44 1.42 1.50 1.73 2.07 2.37 2.59 2.54 2.41 2.27 2.17 2.07 2.07 2.00 1.86 1.79 1.87 2.08 2.16 2.32 2.11 2.46 2.65 2.54 2.52 2.77 2.75 2.94 3.08 3.48 3.25 3.29 3.04 2.99 2.84
0.06 0.04 0.03 0.03 0.04 0.05 0.08 0.15 0.28 0.41 0.69 0.76 0.85 0.99 1.26 1.49 1.84 2.16 2.31 2.65 2.79 2.95 2.82 2.76 2.67 2.64 2.63 2.57 2.42 1.97 2.10 2.18 2.28 2.53 2.51 2.64 2.94 3.03 3.09 3.08 2.98 2.72 3.07 3.52 3.77 3.37 3.60 3.65 3.27
0.06 0.06 0.04 0.04 0.05 0.07 0.09 0.16 0.30 0.48 0.61 0.66 0.76 0.95 1.21 1.54 1.84 2.28 2.57 2.98 3.01 3.08 3.27 3.43 3.34 3.22 3.25 3.15 3.04 2.81 2.60 2.77 2.73 2.82 3.00 3.15 3.41 3.55 3.56 3.41 3.29 2.90 2.89 3.23 3.46 3.42 3.83 3.68 3.49
0.05 0.06 0.09 0.09 0.08 0.10 0.19 0.32 0.49 0.65 0.68 0.85 0.93 1.17 1.33 1.64 2.02 2.12 2.30 2.59 2.93 3.23 3.77 4.12 4.17 4.04 4.04 3.97 3.69 3.41 3.29 3.31 3.57 3.73 3.69 3.63 3.76 4.04 3.88 3.66 3.26 3.02 3.03 3.26 3.22 3.23 3.37 3.23 3.12
0.07 0.13 0.23 0.20 0.13 0.14 0.24 0.58 0.69 0.74 0.84 1.03 1.06 1.28 1.58 1.68 2.02 2.15 2.20 2.43 3.05 3.53 4.16 4.56 4.73 4.92 4.82 4.80 4.52 4.07 3.89 3.85 3.93 4.02 4.04 3.85 3.90 3.81 3.80 3.48 3.05 3.07 3.08 3.13 3.26 3.11 3.21 3.18 3.17
0.14 0.20 0.30 0.32 0.19 0.19 0.27 0.62 0.76 0.78 0.96 1.11 1.25 1.31 1.45 1.66 2.08 2.38 2.55 2.69 3.24 3.85 4.57 5.08 5.62 5.88 5.75 5.46 5.04 4.64 4.57 4.41 4.26 4.26 4.23 4.04 3.78 3.57 3.72 3.42 3.23 3.12 3.07 2.95 2.72 3.17 3.35 3.35 3.31
0.22 0.23 0.30 0.37 0.23 0.22 0.36 0.58 0.80 0.90 1.06 1.22 1.25 1.25 1.39 1.68 1.91 2.29 2.63 3.02 3.47 3.91 4.70 5.42 6.07 6.29 6.05 5.51 5.16 5.04 4.86 4.55 4.32 4.08 3.93 3.68 3.52 3.22 3.44 3.15 3.06 3.13 3.24 3.09 3.06 3.38 3.44 3.17 3.22
0.16 0.19 0.27 0.32 0.23 0.26 0.42 0.61 0.82 0.97 1.13 1.20 1.35 1.33 1.54 1.79 1.95 2.34 2.70 3.16 3.61 4.13 4.89 5.55 6.07 6.12 5.96 5.63 5.28 5.03 4.54 4.20 3.93 3.68 3.48 3.24 2.95 2.85 3.21 2.97 3.31 3.10 3.02 2.89 2.82 2.93 3.01 2.74 2.94
0.12 0.20 0.32 0.32 0.23 0.27 0.45 0.69 0.95 1.01 0.97 1.00 1.21 1.32 1.40 1.60 1.90 2.27 2.78 3.07 3.45 3.98 4.55 4.97 5.01 4.76 4.67 4.73 4.64 4.38 4.38 4.18 4.07 3.86 3.69 3.22 3.03 2.94 2.76 2.97 2.79 2.76 2.87 2.66 2.56 2.77 2.79 2.50 2.79
0.11 0.19 0.25 0.28 0.29 0.35 0.53 0.91 1.14 1.13 0.97 0.90 0.94 1.06 1.18 1.32 1.53 1.87 2.44 2.76 2.96 3.46 3.79 3.83 3.75 3.63 3.75 3.86 3.82 3.87 4.11 4.11 4.09 3.98 3.72 3.38 3.20 3.08 2.93 2.82 2.64 2.59 2.44 2.57 2.60 2.65 2.72 2.68 2.59
0.12 0.12 0.14 0.17 0.28 0.55 0.64 1.12 1.43 1.48 1.32 1.05 0.95 1.07 1.13 1.22 1.28 1.59 1.92 2.16 2.44 2.71 2.83 2.81 2.90 2.98 3.08 3.17 3.22 3.10 3.12 3.34 3.57 3.75 3.82 3.74 3.46 3.20 2.91 2.73 2.55 2.39 2.26 2.54 2.24 2.34 2.65 2.84 2.53
0.09 0.08 0.11 0.16 0.25 0.44 0.57 0.87 1.37 1.68 1.71 1.31 1.05 0.97 0.92 1.06 1.31 1.52 1.64 1.80 1.90 1.96 2.07 2.12 2.41 2.78 2.96 3.07 3.20 3.11 2.79 2.77 2.82 2.95 3.16 3.16 3.12 2.92 2.59 2.52 2.48 2.31 2.18 2.22 2.22 2.51 2.52 2.55 2.48
0.09 0.14 0.22 0.33 0.50 0.78 0.72 0.79 1.25 1.53 1.60 1.26 1.03 0.94 0.83 0.83 1.01 1.24 1.53 1.63 1.59 1.55 1.69 1.90 2.20 2.65 2.91 3.00 2.97 2.94 2.86 2.84 2.74 2.73 2.82 2.69 2.65 2.54 2.32 2.24 2.36 2.24 2.14 2.16 2.17 2.31 2.37 2.53 2.61
0.11 0.19 0.57 0.98 1.32 1.35 0.83 0.79 1.04 1.08 1.02 1.03 0.88 0.81 0.85 0.79 0.78 0.79 0.99 1.25 1.23 1.18 1.36 1.61 1.81 2.17 2.42 2.54 2.53 2.49 2.60 2.71 2.58 2.44 2.40 2.33 2.19 2.08 2.03 2.12 2.27 2.13 2.08 2.17 2.32 2.35 2.34 2.46 2.54
0.10 0.15 0.42 0.73 0.93 1.06 0.91 1.21 1.33 1.00 0.83 0.74 0.63 0.60 0.68 0.63 0.58 0.57 0.65 0.82 1.04 1.04 1.10 1.21 1.47 1.74 1.96 2.03 2.15 2.30 2.45 2.56 2.49 2.65 2.44 2.28 1.99 1.83 1.87 2.09 2.18 2.11 2.03 2.03 2.42 2.41 2.43 2.53 2.50
0.12 0.12 0.17 0.28 0.44 0.75 1.05 1.26 1.21 1.02 0.95 0.76 0.58 0.51 0.52 0.51 0.50 0.50 0.57 0.77 0.81 0.80 0.85 0.95 1.21 1.43 1.59 1.73 1.93 2.05 2.04 2.05 2.22 2.39 2.35 2.18 2.09 1.88 1.95 2.02 2.22 2.32 2.40 2.45 2.59 2.52 2.53 2.72 2.69
0.12 0.12 0.15 0.22 0.39 0.61 0.94 1.32 1.40 1.29 1.12 0.94 0.82 0.61 0.50 0.51 0.52 0.49 0.50 0.59 0.63 0.63 0.74 0.98 1.20 1.24 1.45 1.76 1.98 1.92 1.94 1.90 2.08 2.10 2.08 2.08 2.01 1.98 2.03 2.04 2.13 2.28 2.41 2.47 2.61 2.63 2.67 2.84 2.85
0.16 0.14 0.13 0.17 0.22 0.39 0.81 1.08 1.02 1.06 0.99 0.93 0.81 0.68 0.62 0.56 0.55 0.54 0.54 0.55 0.67 0.58 0.66 0.84 0.98 1.15 1.45 1.75 2.00 2.04 1.95 1.98 2.04 1.91 1.87 1.97 1.99 1.97 2.02 2.04 2.03 2.04 2.19 2.39 2.60 2.55 2.71 2.84 2.89
0.17 0.17 0.17 0.23 0.23 0.26 0.44 0.74 0.62 0.71 0.81 0.84 0.68 0.61 0.59 0.49 0.47 0.44 0.43 0.50 0.48 0.47 0.58 0.88 1.21 1.56 1.74 2.02 2.34 2.42 2.19 1.99 1.86 1.70 1.68 1.82 1.99 2.03 2.02 2.01 2.02 1.97 2.08 2.33 2.49 2.57 2.82 2.97 2.87

GEFSSGP_prec_meanprecacc_282.txt.gz
Total_Precipitation_Accumulation
0.11 0.27 0.67 1.10 1.64 1.88 1.44 0.76 0.59 0.45 0.44 0.55 0.53 0.44 0.50 0.69 1.04 1.84 1.82 1.80 1.48 1.36 1.44 1.74 2.07 1.88 1.63 1.53 1.60 1.66 1.54 1.51 1.52 1.57 1.56 1.69 1.67 1.53 1.54 1.69 1.82 2.05 2.35 2.19 1.98 1.83 1.65 1.48 1.30
0.22 0.42 0.87 1.35 1.90 2.04 1.31 0.62 0.48 0.38 0.47 0.54 0.45 0.39 0.50 0.57 0.64 1.05 1.54 1.66 1.26 1.05 1.12 1.25 1.53 1.54 1.43 1.35 1.37 1.35 1.36 1.36 1.44 1.57 1.50 1.54 1.53 1.45 1.51 1.70 1.80 1.98 1.96 1.73 1.73 1.65 1.45 1.23 1.10
0.39 0.63 0.97 1.36 1.42 1.39 0.80 0.41 0.36 0.35 0.49 0.53 0.46 0.44 0.57 0.80 0.90 1.16 1.26 1.21 1.01 0.92 0.99 1.14 1.27 1.24 1.26 1.25 1.22 1.18 1.21 1.29 1.40 1.43 1.44 1.50 1.45 1.45 1.54 1.68 1.82 1.80 1.63 1.55 1.59 1.46 1.31 1.05 0.93
0.54 0.76 0.96 1.05 0.94 0.74 0.47 0.33 0.32 0.36 0.50 0.46 0.44 0.65 0.88 1.06 0.94 1.01 0.98 0.92 0.79 0.80 0.87 1.04 1.09 0.96 1.00 1.05 1.04 1.07 1.14 1.30 1.37 1.31 1.42 1.51 1.56 1.55 1.58 1.63 1.66 1.56 1.42 1.42 1.32 1.20 1.12 0.95 0.88
0.59 0.85 1.04 0.90 0.68 0.48 0.37 0.32 0.33 0.34 0.37 0.46 0.57 0.93 1.26 1.27 0.90 0.93 0.93 0.77 0.62 0.70 0.80 0.87 0.91 0.84 0.85 0.93 0.94 1.02 1.18 1.38 1.41 1.34 1.36 1.42 1.50 1.54 1.49 1.41 1.39 1.39 1.30 1.21 1.14 1.10 0.99 0.94 0.92
0.67 0.77 0.77 0.63 0.46 0.32 0.35 0.33 0.30 0.32 0.40 0.50 0.64 0.80 1.35 1.32 1.01 1.12 1.00 0.86 0.70 0.72 0.80 0.87 0.92 0.85 0.85 0.92 0.95 1.03 1.27 1.50 1.47 1.35 1.34 1.33 1.33 1.34 1.29 1.24 1.24 1.27 1.19 1.08 1.03 0.98 0.90 0.86 0.87
0.48 0.55 0.51 0.39 0.31 0.28 0.27 0.26 0.27 0.32 0.48 0.60 0.68 0.94 1.49 1.61 1.21 1.11 1.13 1.08 0.88 0.90 1.05 1.05 0.94 0.95 1.08 1.19 1.25 1.34 1.55 1.62 1.51 1.47 1.38 1.32 1.25 1.23 1.26 1.22 1.20 1.18 1.11 1.06 0.95 0.87 0.81 0.79 0.82
0.30 0.28 0.26 0.20 0.18 0.24 0.20 0.20 0.25 0.32 0.49 0.63 0.79 1.10 1.67 1.62 1.27 1.18 1.22 1.36 1.17 1.07 1.06 1.08 0.97 0.97 1.03 1.29 1.66 1.70 1.69 1.68 1.62 1.52 1.45 1.33 1.21 1.21 1.25 1.15 1.28 1.24 1.23 1.20 1.13 1.02 0.89 0.89 0.96
0.18 0.23 0.19 0.14 0.11 0.15 0.16 0.18 0.24 0.35 0.51 0.63 0.90 1.13 1.26 1.18 1.25 1.26 1.43 1.71 1.69 1.44 1.34 1.21 0.97 1.04 1.23 1.50 1.67 1.72 1.75 1.84 1.91 1.81 1.67 1.63 1.71 1.65 1.75 1.51 1.73 1.62 1.59 1.51 1.48 1.38 1.31 1.25 1.12
0.14 0.17 0.14 0.10 0.09 0.11 0.11 0.15 0.27 0.51 0.70 0.99 1.26 1.24 1.05 1.02 1.27 1.43 1.64 1.98 2.06 1.93 1.74 1.51 1.28 1.31 1.53 1.55 1.52 1.62 1.68 1.83 1.93 2.03 1.95 2.23 2.51 2.39 1.87 2.04 2.32 2.29 2.18 2.05 2.08 2.21 1.96 1.64 1.42
0.09 0.09 0.08 0.09 0.08 0.08 0.08 0.14 0.21 0.38 0.88 1.42 1.66 1.60 1.39 1.21 1.43 1.77 2.12 2.43 2.25 2.03 1.96 1.89 1.72 1.70 1.61 1.63 1.60 1.78 1.95 2.30 2.18 2.07 2.11 2.56 2.45 2.17 1.97 2.21 2.56 2.79 2.62 2.46 2.57 2.68 2.24 2.30 2.51
0.06 0.06 0.05 0.06 0.06 0.06 0.08 0.14 0.25 0.40 0.88 1.15 1.36 1.45 1.46 1.44 1.52 1.75 2.08 2.39 2.60 2.56 2.45 2.33 2.21 2.10 2.11 2.02 1.88 1.82 1.93 2.16 2.25 2.38 2.16 2.54 2.74 2.62 2.57 2.82 2.79 2.98 3.12 3.51 3.28 3.33 3.09 3.05 2.89
0.07 0.05 0.04 0.04 0.04 0.06 0.09 0.16 0.29 0.44 0.71 0.77 0.86 1.00 1.27 1.50 1.86 2.18 2.33 2.67 2.81 2.97 2.86 2.82 2.74 2.68 2.69 2.62 2.45 1.99 2.14 2.24 2.36 2.60 2.57 2.71 3.01 3.10 3.15 3.12 3.03 2.77 3.11 3.55 3.81 3.41 3.65 3.70 3.31
0.07 0.07 0.05 0.05 0.05 0.08 0.10 0.18 0.32 0.52 0.64 0.68 0.77 0.96 1.22 1.55 1.85 2.29 2.58 2.99 3.03 3.11 3.31 3.49 3.42 3.27 3.31 3.20 3.06 2.83 2.63 2.81 2.77 2.86 3.05 3.22 3.49 3.65 3.62 3.44 3.32 2.94 2.93 3.27 3.50 3.46 3.86 3.71 3.52
0.06 0.08 0.11 0.10 0.09 0.11 0.22 0.38 0.54 0.68 0.70 0.86 0.94 1.18 1.35 1.66 2.04 2.13 2.32 2.61 2.96 3.26 3.80 4.18 4.22 4.09 4.10 4.01 3.71 3.44 3.32 3.34 3.61 3.78 3.75 3.68 3.81 4.10 3.93 3.70 3.29 3.06 3.06 3.30 3.26 3.27 3.40 3.27 3.16
0.08 0.15 0.26 0.22 0.15 0.16 0.27 0.67 0.76 0.77 0.85 1.04 1.07 1.30 1.62 1.70 2.04 2.18 2.23 2.47 3.08 3.55 4.18 4.62 4.81 4.96 4.86 4.83 4.55 4.12 3.95 3.92 4.00 4.08 4.11 3.92 3.96 3.86 3.87 3.55 3.10 3.12 3.12 3.19 3.31 3.17 3.26 3.24 3.23
0.16 0.23 0.34 0.36 0.22 0.21 0.29 0.67 0.82 0.80 0.97 1.11 1.26 1.32 1.47 1.69 2.12 2.42 2.58 2.73 3.27 3.87 4.59 5.14 5.69 5.92 5.77 5.48 5.08 4.69 4.62 4.49 4.34 4.33 4.29 4.10 3.83 3.64 3.81 3.49 3.28 3.18 3.15 3.02 2.79 3.23 3.40 3.41 3.39
0.24 0.25 0.33 0.41 0.25 0.24 0.38 0.61 0.85 0.94 1.07 1.23 1.26 1.26 1.40 1.72 1.94 2.31 2.66 3.05 3.50 3.93 4.72 5.47 6.14 6.34 6.08 5.54 5.21 5.10 4.94 4.63 4.40 4.15 3.99 3.74 3.57 3.28 3.49 3.20 3.12 3.20 3.34 3.17 3.16 3.47 3.51 3.22 3.28
0.17 0.21 0.32 0.36 0.25 0.28 0.44 0.64 0.85 1.01 1.17 1.22 1.37 1.35 1.55 1.81 1.97 2.36 2.73 3.19 3.65 4.16 4.90 5.58 6.12 6.17 5.99 5.66 5.32 5.07 4.61 4.28 4.01 3.74 3.54 3.30 3.01 2.90 3.26 3.02 3.37 3.19 3.13 2.97 2.90 3.01 3.08 2.78 2.99
0.14 0.21 0.35 0.36 0.24 0.29 0.48 0.72 0.98 1.06 1.04 1.05 1.27 1.35 1.42 1.61 1.91 2.28 2.80 3.12 3.49 4.01 4.56 4.98 5.04 4.79 4.70 4.75 4.67 4.42 4.42 4.24 4.14 3.93 3.77 3.29 3.09 2.99 2.81 3.01 2.83 2.81 2.92 2.70 2.60 2.82 2.84 2.55 2.84
0.12 0.20 0.27 0.30 0.31 0.38 0.55 0.93 1.20 1.21 1.02 0.95 0.98 1.08 1.19 1.32 1.53 1.88 2.46 2.80 3.00 3.48 3.81 3.84 3.76 3.66 3.77 3.89 3.85 3.90 4.14 4.17 4.18 4.09 3.83 3.45 3.25 3.12 2.96 2.86 2.68 2.64 2.49 2.61 2.63 2.69 2.77 2.74 2.64
0.13 0.13 0.15 0.19 0.30 0.58 0.67 1.15 1.48 1.57 1.39 1.10 0.98 1.09 1.15 1.23 1.29 1.59 1.93 2.18 2.47 2.75 2.86 2.83 2.91 3.00 3.11 3.20 3.25 3.12 3.16 3.41 3.66 3.85 3.92 3.80 3.52 3.26 2.97 2.79 2.59 2.44 2.31 2.57 2.27 2.38 2.69 2.89 2.57
0.10 0.09 0.11 0.17 0.27 0.47 0.60 0.90 1.41 1.75 1.75 1.35 1.08 0.99 0.95 1.07 1.31 1.52 1.65 1.82 1.93 2.01 2.12 2.15 2.44 2.83 3.01 3.11 3.24 3.14 2.83 2.84 2.91 3.05 3.23 3.22 3.20 3.01 2.69 2.59 2.53 2.35 2.21 2.25 2.26 2.54 2.56 2.58 2.52
0.10 0.14 0.23 0.35 0.52 0.81 0.74 0.83 1.29 1.55 1.63 1.29 1.06 0.96 0.85 0.85 1.02 1.24 1.54 1.64 1.62 1.60 1.74 1.94 2.24 2.72 3.00 3.07 3.03 2.99 2.91 2.90 2.82 2.81 2.89 2.77 2.73 2.63 2.39 2.30 2.40 2.27 2.17 2.20 2.21 2.35 2.41 2.57 2.65
0.11 0.20 0.58 1.02 1.35 1.40 0.86 0.83 1.07 1.10 1.04 1.04 0.90 0.84 0.88 0.81 0.79 0.80 1.00 1.26 1.25 1.21 1.40 1.66 1.85 2.23 2.49 2.61 2.60 2.55 2.66 2.76 2.62 2.48 2.44 2.38 2.23 2.12 2.08 2.16 2.30 2.16 2.11 2.20 2.36 2.38 2.38 2.51 2.59
0.11 0.15 0.43 0.75 0.95 1.09 0.94 1.26 1.36 1.01 0.85 0.75 0.64 0.62 0.71 0.66 0.60 0.59 0.65 0.82 1.05 1.05 1.12 1.24 1.50 1.77 1.99 2.06 2.20 2.34 2.50 2.59 2.52 2.68 2.47 2.31 2.01 1.85 1.90 2.12 2.21 2.13 2.05 2.05 2.45 2.45 2.47 2.58 2.57
0.13 0.13 0.18 0.30 0.46 0.77 1.07 1.28 1.25 1.04 0.97 0.77 0.59 0.53 0.53 0.53 0.52 0.52 0.58 0.78 0.81 0.81 0.85 0.96 1.22 1.44 1.60 1.75 1.95 2.07 2.06 2.08 2.25 2.42 2.38 2.20 2.12 1.90 1.97 2.05 2.24 2.33 2.41 2.47 2.61 2.56 2.56 2.75 2.73
0.12 0.13 0.15 0.23 0.41 0.63 0.96 1.35 1.44 1.32 1.14 0.95 0.84 0.63 0.53 0.56 0.57 0.54 0.55 0.61 0.64 0.64 0.74 0.99 1.20 1.24 1.45 1.77 1.99 1.93 1.96 1.93 2.10 2.12 2.10 2.11 2.04 2.01 2.04 2.06 2.15 2.29 2.41 2.48 2.63 2.65 2.69 2.86 2.89
0.17 0.14 0.14 0.18 0.23 0.40 0.82 1.11 1.05 1.09 1.03 0.96 0.83 0.71 0.66 0.65 0.63 0.59 0.58 0.57 0.68 0.60 0.67 0.85 0.99 1.15 1.45 1.76 2.01 2.05 1.97 2.00 2.07 1.93 1.89 2.00 2.01 1.99 2.05 2.06 2.04 2.05 2.20 2.40 2.62 2.59 2.74 2.87 2.91
0.18 0.17 0.17 0.24 0.24 0.27 0.45 0.76 0.64 0.73 0.84 0.87 0.70 0.62 0.61 0.53 0.51 0.48 0.46 0.52 0.50 0.49 0.59 0.89 1.21 1.56 1.75 2.03 2.35 2.42 2.19 2.01 1.87 1.72 1.70 1.84 2.02 2.06 2.04 2.03 2.04 1.99 2.09 2.33 2.51 2.61 2.85 2.99 2.89

GEFSSGP_prec_meanprecacc_288.txt.gz
Total_Precipitation_Accumulation
0.11 0.28 0.69 1.15 1.69 1.95 1.50 0.80 0.62 0.47 0.46 0.56 0.54 0.46 0.52 0.71 1.05 1.89 1.90 1.89 1.57 1.42 1.52 1.90 2.29 2.03 1.75 1.65 1.71 1.75 1.59 1.55 1.56 1.61 1.59 1.73 1.73 1.58 1.60 1.77 1.95 2.22 2.52 2.31 2.07 1.92 1.76 1.61 1.41
0.23 0.44 0.89 1.38 1.95 2.10 1.39 0.71 0.53 0.42 0.49 0.55 0.46 0.41 0.52 0.59 0.68 1.11 1.59 1.71 1.30 1.10 1.19 1.37 1.71 1.68 1.55 1.46 1.48 1.42 1.42 1.42 1.49 1.60 1.54 1.58 1.58 1.52 1.57 1.78 1.94 2.13 2.08 1.80 1.78 1.71 1.54 1.33 1.19
0.41 0.65 1.01 1.40 1.47 1.42 0.84 0.45 0.40 0.38 0.51 0.54 0.47 0.45 0.59 0.82 0.94 1.21 1.31 1.25 1.05 0.96 1.06 1.25 1.41 1.37 1.37 1.36 1.31 1.26 1.28 1.35 1.45 1.47 1.48 1.54 1.49 1.50 1.61 1.76 1.91 1.89 1.71 1.61 1.64 1.52 1.40 1.13 0.99
0.56 0.78 0.99 1.09 0.97 0.77 0.50 0.37 0.35 0.38 0.51 0.47 0.45 0.66 0.91 1.09 0.97 1.03 1.02 0.96 0.84 0.86 0.98 1.16 1.20 1.06 1.09 1.13 1.11 1.13 1.18 1.35 1.41 1.34 1.44 1.53 1.58 1.56 1.62 1.69 1.74 1.66 1.50 1.47 1.38 1.27 1.20 1.02 0.95
0.61 0.86 1.06 0.92 0.70 0.51 0.40 0.35 0.35 0.36 0.38 0.47 0.58 0.96 1.29 1.31 0.92 0.95 0.97 0.80 0.65 0.77 0.92 1.00 1.05 0.94 0.92 1.00 0.99 1.06 1.20 1.40 1.44 1.37 1.39 1.45 1.53 1.56 1.53 1.49 1.49 1.51 1.39 1.28 1.21 1.18 1.08 1.03 1.03
0.68 0.77 0.78 0.65 0.49 0.36 0.39 0.37 0.34 0.34 0.41 0.51 0.65 0.82 1.40 1.37 1.04 1.14 1.03 0.88 0.74 0.78 0.91 1.03 1.07 0.97 0.92 0.97 0.99 1.06 1.30 1.53 1.49 1.37 1.36 1.35 1.35 1.36 1.33 1.33 1.38 1.43 1.30 1.17 1.12 1.09 1.03 0.96 0.97
0.48 0.56 0.52 0.40 0.34 0.31 0.31 0.29 0.30 0.33 0.49 0.61 0.70 0.97 1.56 1.65 1.25 1.14 1.15 1.10 0.92 0.97 1.16 1.16 1.04 1.04 1.14 1.23 1.29 1.36 1.58 1.64 1.52 1.48 1.40 1.34 1.27 1.25 1.29 1.26 1.29 1.29 1.20 1.15 1.04 1.02 0.95 0.87 0.90
0.32 0.30 0.27 0.21 0.20 0.26 0.23 0.22 0.27 0.34 0.51 0.66 0.81 1.13 1.71 1.67 1.30 1.20 1.24 1.39 1.23 1.17 1.15 1.14 1.03 1.03 1.08 1.33 1.69 1.73 1.72 1.71 1.64 1.55 1.47 1.36 1.24 1.25 1.28 1.18 1.33 1.32 1.31 1.26 1.21 1.20 1.00 0.97 1.04
0.19 0.24 0.19 0.15 0.13 0.17 0.18 0.19 0.25 0.37 0.52 0.64 0.91 1.14 1.28 1.20 1.28 1.28 1.45 1.74 1.76 1.51 1.38 1.24 1.00 1.07 1.27 1.55 1.70 1.76 1.79 1.89 1.96 1.84 1.71 1.68 1.73 1.69 1.79 1.55 1.79 1.71 1.69 1.62 1.61 1.54 1.42 1.36 1.22
0.15 0.18 0.15 0.11 0.10 0.12 0.12 0.16 0.28 0.53 0.72 1.01 1.28 1.27 1.07 1.05 1.30 1.45 1.65 2.03 2.11 1.97 1.78 1.55 1.31 1.33 1.54 1.57 1.55 1.66 1.72 1.88 1.99 2.07 1.98 2.27 2.54 2.42 1.90 2.09 2.39 2.42 2.34 2.22 2.25 2.33 2.09 1.77 1.49
0.10 0.10 0.09 0.10 0.09 0.09 0.09 0.16 0.23 0.41 0.91 1.45 1.70 1.63 1.43 1.24 1.45 1.79 2.14 2.46 2.27 2.04 1.98 1.92 1.75 1.72 1.62 1.64 1.62 1.81 1.98 2.33 2.22 2.11 2.13 2.58 2.48 2.20 1.99 2.23 2.60 2.87 2.71 2.56 2.67 2.75 2.30 2.35 2.55
0.06 0.07 0.06 0.06 0.06 0.06 0.09 0.15 0.27 0.42 0.90 1.18 1.38 1.47 1.48 1.46 1.53 1.76 2.09 2.40 2.61 2.57 2.46 2.35 2.23 2.12 2.12 2.03 1.90 1.85 1.96 2.19 2.28 2.42 2.19 2.56 2.79 2.65 2.59 2.84 2.82 3.03 3.17 3.55 3.34 3.39 3.16 3.10 2.93
0.07 0.06 0.05 0.04 0.04 0.06 0.09 0.17 0.31 0.46 0.73 0.78 0.87 1.01 1.28 1.51 1.87 2.19 2.34 2.68 2.82 2.99 2.88 2.85 2.77 2.70 2.71 2.63 2.47 2.02 2.18 2.27 2.39 2.63 2.61 2.74 3.06 3.15 3.18 3.16 3.06 2.81 3.15 3.59 3.84 3.45 3.71 3.74 3.34
0.07 0.07 0.05 0.05 0.06 0.08 0.11 0.19 0.33 0.54 0.66 0.69 0.78 0.96 1.22 1.55 1.86 2.30 2.59 3.00 3.04 3.13 3.33 3.52 3.44 3.30 3.34 3.22 3.09 2.87 2.67 2.85 2.82 2.92 3.12 3.28 3.55 3.72 3.67 3.49 3.38 2.99 2.96 3.29 3.52 3.50 3.90 3.75 3.55
0.07 0.08 0.11 0.10 0.09 0.12 0.23 0.39 0.55 0.70 0.71 0.87 0.95 1.19 1.36 1.66 2.04 2.14 2.32 2.62 2.98 3.28 3.82 4.20 4.25 4.12 4.13 4.03 3.74 3.47 3.37 3.39 3.66 3.84 3.82 3.76 3.89 4.17 3.99 3.75 3.35 3.10 3.10 3.33 3.29 3.31 3.44 3.31 3.19
0.09 0.15 0.27 0.23 0.16 0.16 0.29 0.70 0.78 0.79 0.86 1.04 1.07 1.30 1.62 1.71 2.05 2.19 2.24 2.48 3.10 3.56 4.20 4.64 4.84 5.00 4.89 4.85 4.57 4.14 3.98 3.97 4.05 4.15 4.19 4.00 4.03 3.93 3.93 3.61 3.16 3.16 3.15 3.22 3.35 3.21 3.31 3.27 3.27
0.16 0.24 0.35 0.37 0.22 0.22 0.32 0.71 0.84 0.82 0.98 1.12 1.26 1.32 1.47 1.70 2.13 2.43 2.59 2.75 3.29 3.88 4.61 5.18 5.76 5.97 5.81 5.51 5.11 4.73 4.66 4.54 4.39 4.40 4.36 4.15 3.88 3.70 3.88 3.56 3.34 3.23 3.20 3.07 2.84 3.29 3.47 3.46 3.43
0.24 0.25 0.34 0.42 0.26 0.24 0.41 0.64 0.87 0.95 1.08 1.23 1.27 1.26 1.41 1.72 1.95 2.32 2.68 3.07 3.52 3.94 4.74 5.51 6.25 6.43 6.14 5.58 5.24 5.14 4.97 4.68 4.44 4.21 4.04 3.78 3.61 3.32 3.55 3.25 3.16 3.24 3.38 3.21 3.20 3.53 3.58 3.28 3.33
0.17 0.21 0.32 0.37 0.25 0.29 0.45 0.65 0.87 1.03 1.17 1.23 1.37 1.36 1.56 1.82 1.98 2.37 2.74 3.21 3.67 4.17 4.92 5.60 6.17 6.25 6.09 5.72 5.34 5.10 4.64 4.32 4.05 3.79 3.59 3.33 3.04 2.94 3.30 3.06 3.41 3.21 3.16 3.00 2.94 3.05 3.13 2.84 3.04
0.14 0.22 0.35 0.36 0.25 0.30 0.49 0.73 1.00 1.08 1.05 1.06 1.27 1.35 1.42 1.62 1.92 2.29 2.82 3.13 3.51 4.03 4.58 5.00 5.06 4.83 4.75 4.80 4.69 4.44 4.45 4.28 4.18 3.99 3.81 3.32 3.11 3.01 2.84 3.04 2.86 2.83 2.95 2.75 2.66 2.86 2.88 2.59 2.87
0.12 0.20 0.27 0.30 0.31 0.39 0.56 0.94 1.22 1.23 1.03 0.95 0.99 1.09 1.20 1.33 1.54 1.89 2.47 2.80 3.01 3.51 3.83 3.86 3.79 3.69 3.82 3.93 3.88 3.93 4.18 4.22 4.24 4.13 3.86 3.49 3.28 3.14 2.99 2.88 2.71 2.67 2.51 2.64 2.67 2.73 2.82 2.80 2.70
0.13 0.13 0.16 0.19 0.30 0.59 0.67 1.15 1.49 1.59 1.40 1.11 0.98 1.09 1.16 1.24 1.29 1.60 1.94 2.19 2.48 2.76 2.88 2.85 2.93 3.02 3.15 3.27 3.29 3.16 3.20 3.46 3.71 3.89 3.94 3.83 3.54 3.28 2.99 2.81 2.61 2.46 2.33 2.61 2.31 2.42 2.73 2.93 2.62
0.10 0.09 0.12 0.18 0.29 0.48 0.61 0.91 1.41 1.76 1.77 1.36 1.09 1.00 0.96 1.08 1.32 1.53 1.66 1.83 1.95 2.02 2.13 2.16 2.45 2.84 3.04 3.18 3.30 3.18 2.86 2.89 2.97 3.10 3.26 3.24 3.23 3.04 2.71 2.61 2.55 2.38 2.25 2.29 2.29 2.57 2.59 2.61 2.54
0.10 0.16 0.25 0.37 0.53 0.82 0.74 0.83 1.29 1.55 1.65 1.30 1.07 0.97 0.86 0.86 1.03 1.26 1.55 1.65 1.64 1.61 1.75 1.95 2.26 2.74 3.03 3.13 3.09 3.04 2.95 2.96 2.90 2.87 2.93 2.80 2.77 2.66 2.42 2.32 2.43 2.30 2.21 2.24 2.24 2.37 2.44 2.60 2.67
0.11 0.21 0.60 1.03 1.36 1.41 0.86 0.83 1.07 1.10 1.04 1.04 0.90 0.84 0.89 0.82 0.81 0.81 1.01 1.28 1.26 1.23 1.41 1.67 1.86 2.26 2.55 2.69 2.67 2.60 2.72 2.83 2.70 2.54 2.48 2.40 2.26 2.15 2.10 2.20 2.34 2.19 2.16 2.25 2.39 2.42 2.41 2.55 2.62
0.11 0.16 0.43 0.76 0.96 1.09 0.94 1.27 1.36 1.02 0.85 0.76 0.64 0.63 0.72 0.67 0.61 0.59 0.66 0.84 1.06 1.07 1.15 1.28 1.52 1.80 2.06 2.16 2.29 2.42 2.58 2.68 2.60 2.74 2.50 2.34 2.04 1.87 1.93 2.16 2.24 2.17 2.09 2.09 2.49 2.48 2.50 2.61 2.59
0.13 0.13 0.19 0.31 0.46 0.77 1.08 1.29 1.25 1.04 0.97 0.78 0.60 0.54 0.54 0.53 0.52 0.52 0.59 0.79 0.85 0.87 0.93 1.05 1.27 1.47 1.67 1.85 2.06 2.16 2.15 2.15 2.32 2.47 2.43 2.25 2.17 1.93 1.99 2.07 2.27 2.36 2.43 2.49 2.63 2.57 2.58 2.78 2.75
0.13 0.13 0.16 0.24 0.41 0.63 0.96 1.35 1.44 1.33 1.14 0.96 0.84 0.64 0.53 0.56 0.58 0.54 0.55 0.64 0.69 0.73 0.84 1.05 1.23 1.26 1.49 1.84 2.07 2.01 2.04 1.99 2.15 2.16 2.14 2.15 2.08 2.03 2.06 2.08 2.17 2.32 2.43 2.49 2.65 2.66 2.71 2.89 2.91
0.17 0.15 0.14 0.19 0.24 0.40 0.82 1.12 1.06 1.10 1.03 0.96 0.83 0.71 0.67 0.65 0.63 0.60 0.59 0.59 0.70 0.63 0.71 0.88 1.01 1.17 1.48 1.81 2.08 2.13 2.04 2.05 2.10 1.96 1.93 2.03 2.04 2.01 2.07 2.08 2.07 2.08 2.23 2.43 2.64 2.60 2.76 2.88 2.93
0.18 0.17 0.18 0.24 0.24 0.27 0.45 0.76 0.64 0.73 0.85 0.87 0.70 0.62 0.61 0.53 0.51 0.48 0.47 0.53 0.51 0.50 0.60 0.91 1.23 1.58 1.77 2.06 2.40 2.48 2.24 2.04 1.90 1.75 1.74 1.88 2.04 2.09 2.08 2.07 2.07 2.01 2.12 2.36 2.52 2.63 2.87 3.00 2.90

GEFSSGP_prec_meanprecacc_294.txt.gz
Total_Precipitation_Accumulation
0.12 0.31 0.72 1.18 1.72 1.97 1.52 0.82 0.63 0.48 0.46 0.57 0.54 0.47 0.53 0.72 1.08 1.93 1.93 1.92 1.60 1.48 1.61 2.04 2.45 2.20 1.93 1.77 1.80 1.81 1.62 1.58 1.61 1.66 1.66 1.80 1.80 1.67 1.71 1.95 2.22 2.45 2.67 2.44 2.19 2.03 1.90 1.76 1.55
0.25 0.46 0.91 1.42 1.99 2.13 1.41 0.73 0.55 0.43 0.50 0.56 0.47 0.42 0.54 0.62 0.72 1.16 1.62 1.73 1.33 1.14 1.27 1.51 1.87 1.87 1.73 1.59 1.57 1.49 1.46 1.47 1.54 1.64 1.59 1.64 1.65 1.62 1.74 2.05 2.23 2.32 2.19 1.88 1.86 1.79 1.65 1.45 1.33
0.42 0.66 1.03 1.43 1.50 1.45 0.87 0.47 0.41 0.39 0.52 0.56 0.48 0.48 0.65 0.89 1.00 1.25 1.34 1.28 1.08 1.00 1.13 1.40 1.58 1.57 1.53 1.48 1.41 1.33 1.34 1.42 1.50 1.52 1.53 1.60 1.57 1.62 1.82 2.02 2.10 2.01 1.79 1.67 1.69 1.60 1.48 1.23 1.11
0.57 0.80 1.02 1.11 1.00 0.80 0.53 0.39 0.36 0.39 0.53 0.49 0.46 0.70 0.96 1.13 1.00 1.05 1.04 0.99 0.89 0.92 1.07 1.29 1.35 1.23 1.24 1.28 1.24 1.22 1.26 1.41 1.46 1.38 1.50 1.62 1.68 1.67 1.76 1.80 1.85 1.76 1.57 1.53 1.44 1.34 1.30 1.15 1.06
0.62 0.88 1.09 0.94 0.72 0.54 0.43 0.38 0.37 0.37 0.39 0.48 0.59 0.97 1.32 1.33 0.95 0.97 0.99 0.84 0.72 0.87 1.03 1.12 1.19 1.08 1.03 1.11 1.10 1.13 1.27 1.46 1.49 1.42 1.46 1.52 1.59 1.63 1.61 1.56 1.58 1.60 1.47 1.36 1.29 1.26 1.18 1.19 1.13
0.69 0.79 0.81 0.68 0.52 0.38 0.40 0.39 0.34 0.35 0.42 0.52 0.66 0.83 1.43 1.41 1.08 1.18 1.06 0.94 0.82 0.91 1.04 1.16 1.19 1.08 1.02 1.06 1.05 1.11 1.34 1.57 1.53 1.41 1.40 1.39 1.39 1.41 1.42 1.44 1.48 1.53 1.39 1.27 1.22 1.19 1.11 1.07 1.08
0.49 0.58 0.55 0.43 0.37 0.34 0.33 0.31 0.32 0.34 0.50 0.62 0.70 0.98 1.60 1.70 1.29 1.17 1.19 1.19 1.03 1.12 1.31 1.28 1.13 1.12 1.22 1.30 1.33 1.40 1.61 1.67 1.56 1.51 1.43 1.37 1.30 1.28 1.34 1.32 1.36 1.39 1.32 1.26 1.16 1.15 1.07 0.99 1.03
0.32 0.32 0.29 0.24 0.22 0.29 0.25 0.24 0.29 0.35 0.52 0.67 0.83 1.16 1.75 1.71 1.34 1.23 1.28 1.46 1.32 1.28 1.27 1.24 1.09 1.09 1.15 1.40 1.73 1.76 1.75 1.74 1.68 1.58 1.50 1.39 1.28 1.30 1.35 1.23 1.38 1.39 1.40 1.35 1.37 1.46 1.21 1.12 1.18
0.20 0.25 0.21 0.17 0.15 0.21 0.21 0.21 0.27 0.40 0.54 0.66 0.93 1.16 1.31 1.23 1.30 1.29 1.47 1.78 1.83 1.60 1.47 1.31 1.05 1.11 1.33 1.62 1.75 1.80 1.83 1.93 1.99 1.90 1.76 1.71 1.78 1.76 1.86 1.61 1.87 1.80 1.79 1.70 1.76 1.81 1.62 1.53 1.40
0.16 0.19 0.18 0.14 0.13 0.15 0.15 0.17 0.29 0.55 0.73 1.02 1.30 1.28 1.09 1.07 1.31 1.46 1.67 2.06 2.16 2.01 1.81 1.58 1.34 1.36 1.59 1.61 1.60 1.70 1.76 1.91 2.02 2.12 2.04 2.32 2.59 2.47 1.95 2.14 2.47 2.53 2.43 2.30 2.35 2.49 2.21 1.89 1.64
0.11 0.11 0.11 0.12 0.11 0.10 0.11 0.17 0.25 0.42 0.92 1.47 1.71 1.65 1.44 1.25 1.45 1.80 2.18 2.50 2.29 2.06 2.00 1.93 1.77 1.73 1.64 1.68 1.65 1.84 2.02 2.37 2.26 2.15 2.18 2.64 2.54 2.26 2.05 2.29 2.67 2.97 2.80 2.63 2.73 2.82 2.37 2.42 2.65
0.07 0.07 0.06 0.07 0.07 0.07 0.11 0.17 0.29 0.44 0.94 1.21 1.41 1.49 1.49 1.46 1.54 1.79 2.12 2.41 2.62 2.58 2.47 2.36 2.25 2.14 2.14 2.05 1.92 1.87 1.99 2.22 2.31 2.46 2.23 2.61 2.85 2.72 2.66 2.90 2.88 3.10 3.25 3.64 3.41 3.46 3.24 3.17 2.99
0.07 0.06 0.05 0.04 0.05 0.07 0.10 0.19 0.33 0.49 0.76 0.81 0.89 1.02 1.28 1.52 1.89 2.21 2.35 2.69 2.83 3.00 2.90 2.87 2.78 2.72 2.73 2.65 2.49 2.05 2.21 2.30 2.43 2.70 2.69 2.81 3.14 3.24 3.25 3.21 3.12 2.87 3.20 3.64 3.91 3.51 3.79 3.82 3.43
0.08 0.07 0.05 0.05 0.06 0.09 0.13 0.21 0.36 0.56 0.67 0.70 0.79 0.97 1.23 1.56 1.87 2.31 2.60 3.02 3.05 3.14 3.34 3.53 3.46 3.32 3.36 3.24 3.11 2.91 2.71 2.89 2.88 3.04 3.22 3.34 3.63 3.81 3.77 3.57 3.43 3.05 3.01 3.33 3.58 3.59 3.99 3.84 3.64
0.07 0.09 0.11 0.10 0.10 0.13 0.25 0.42 0.57 0.72 0.72 0.87 0.95 1.19 1.36 1.67 2.05 2.15 2.35 2.64 2.99 3.29 3.83 4.21 4.26 4.13 4.15 4.05 3.76 3.51 3.41 3.43 3.72 3.92 3.90 3.82 3.96 4.25 4.07 3.81 3.40 3.16 3.16 3.39 3.36 3.40 3.52 3.38 3.25
0.09 0.16 0.27 0.23 0.16 0.17 0.30 0.72 0.80 0.80 0.86 1.05 1.08 1.31 1.63 1.71 2.06 2.19 2.26 2.49 3.11 3.57 4.21 4.66 4.84 5.02 4.90 4.87 4.60 4.19 4.03 4.02 4.11 4.21 4.27 4.06 4.10 3.99 4.01 3.66 3.22 3.23 3.22 3.28 3.42 3.30 3.39 3.35 3.34
0.16 0.24 0.35 0.37 0.23 0.22 0.33 0.72 0.85 0.82 0.98 1.12 1.27 1.33 1.48 1.70 2.13 2.43 2.60 2.75 3.29 3.89 4.62 5.20 5.79 5.99 5.83 5.53 5.14 4.78 4.71 4.59 4.45 4.47 4.44 4.23 3.95 3.77 3.96 3.62 3.39 3.30 3.27 3.15 2.91 3.37 3.56 3.54 3.50
0.24 0.25 0.34 0.42 0.26 0.24 0.42 0.65 0.87 0.95 1.09 1.24 1.27 1.27 1.41 1.73 1.95 2.33 2.69 3.08 3.52 3.95 4.75 5.54 6.28 6.47 6.17 5.61 5.28 5.19 5.02 4.73 4.51 4.28 4.13 3.87 3.70 3.41 3.62 3.33 3.23 3.31 3.45 3.29 3.29 3.63 3.69 3.36 3.39
0.17 0.21 0.33 0.37 0.25 0.29 0.46 0.66 0.88 1.03 1.18 1.23 1.37 1.36 1.56 1.82 1.98 2.38 2.75 3.22 3.67 4.18 4.93 5.64 6.22 6.30 6.15 5.76 5.38 5.14 4.68 4.37 4.11 3.85 3.66 3.42 3.14 3.01 3.37 3.12 3.47 3.27 3.21 3.05 3.01 3.13 3.21 2.91 3.09
0.14 0.22 0.35 0.36 0.25 0.30 0.49 0.74 1.02 1.09 1.05 1.06 1.27 1.35 1.42 1.62 1.92 2.29 2.84 3.15 3.52 4.04 4.59 5.03 5.12 4.89 4.81 4.84 4.73 4.48 4.48 4.31 4.23 4.05 3.89 3.40 3.19 3.07 2.88 3.10 2.93 2.90 3.01 2.81 2.73 2.93 2.95 2.66 2.93
0.12 0.20 0.27 0.30 0.31 0.39 0.56 0.95 1.23 1.23 1.04 0.95 0.99 1.09 1.20 1.33 1.54 1.90 2.49 2.82 3.02 3.51 3.84 3.87 3.82 3.76 3.91 3.97 3.91 3.95 4.21 4.27 4.30 4.20 3.97 3.57 3.35 3.20 3.04 2.94 2.77 2.73 2.56 2.71 2.75 2.79 2.90 2.88 2.76
0.13 0.13 0.16 0.19 0.30 0.59 0.67 1.16 1.49 1.59 1.40 1.11 0.99 1.10 1.16 1.24 1.30 1.61 1.95 2.21 2.49 2.77 2.88 2.86 2.95 3.08 3.22 3.32 3.34 3.19 3.23 3.51 3.75 3.95 4.03 3.90 3.60 3.34 3.06 2.88 2.68 2.52 2.38 2.66 2.37 2.48 2.80 3.00 2.68
0.10 0.09 0.12 0.19 0.29 0.48 0.61 0.91 1.42 1.76 1.77 1.36 1.09 1.00 0.96 1.09 1.33 1.54 1.66 1.85 1.96 2.03 2.14 2.17 2.46 2.88 3.08 3.22 3.35 3.24 2.91 2.94 3.01 3.15 3.32 3.31 3.28 3.11 2.77 2.68 2.62 2.44 2.29 2.34 2.34 2.64 2.67 2.67 2.58
0.10 0.16 0.25 0.37 0.53 0.82 0.75 0.83 1.29 1.55 1.65 1.30 1.07 0.97 0.86 0.86 1.04 1.26 1.56 1.67 1.65 1.62 1.76 1.95 2.26 2.77 3.07 3.19 3.14 3.12 3.04 3.03 2.95 2.92 2.99 2.86 2.84 2.77 2.52 2.39 2.48 2.36 2.27 2.30 2.30 2.45 2.52 2.67 2.71
0.11 0.21 0.60 1.03 1.36 1.41 0.86 0.83 1.07 1.10 1.04 1.04 0.90 0.85 0.89 0.82 0.81 0.82 1.02 1.29 1.27 1.24 1.41 1.67 1.87 2.28 2.59 2.77 2.72 2.67 2.80 2.90 2.75 2.59 2.53 2.46 2.33 2.26 2.20 2.25 2.40 2.25 2.23 2.32 2.46 2.51 2.49 2.61 2.67
0.11 0.16 0.44 0.77 0.96 1.10 0.94 1.27 1.37 1.02 0.85 0.76 0.64 0.63 0.72 0.67 0.61 0.60 0.66 0.84 1.06 1.09 1.17 1.29 1.53 1.82 2.08 2.25 2.37 2.48 2.65 2.75 2.66 2.80 2.54 2.39 2.10 1.94 1.99 2.20 2.28 2.22 2.14 2.14 2.56 2.56 2.56 2.67 2.64
0.13 0.13 0.19 0.31 0.46 0.78 1.08 1.29 1.25 1.05 0.97 0.78 0.60 0.54 0.55 0.54 0.53 0.53 0.59 0.79 0.86 0.88 0.95 1.07 1.28 1.48 1.69 1.94 2.15 2.23 2.23 2.23 2.38 2.53 2.47 2.31 2.22 1.98 2.03 2.10 2.31 2.41 2.47 2.53 2.68 2.63 2.62 2.82 2.79
0.13 0.14 0.16 0.24 0.42 0.63 0.97 1.36 1.44 1.33 1.15 0.96 0.84 0.64 0.53 0.56 0.58 0.55 0.56 0.64 0.70 0.75 0.86 1.07 1.26 1.27 1.50 1.88 2.15 2.10 2.14 2.07 2.23 2.23 2.19 2.21 2.13 2.08 2.14 2.15 2.22 2.36 2.46 2.53 2.69 2.70 2.74 2.91 2.94
0.17 0.15 0.15 0.20 0.24 0.40 0.82 1.12 1.06 1.10 1.03 0.96 0.83 0.71 0.67 0.65 0.63 0.60 0.60 0.60 0.71 0.64 0.72 0.90 1.04 1.19 1.48 1.81 2.11 2.21 2.13 2.12 2.18 2.03 1.98 2.08 2.08 2.06 2.15 2.16 2.14 2.13 2.26 2.45 2.67 2.63 2.79 2.91 2.96
0.18 0.17 0.18 0.24 0.24 0.27 0.45 0.76 0.64 0.73 0.85 0.87 0.70 0.62 0.61 0.53 0.51 0.48 0.47 0.53 0.51 0.50 0.61 0.93 1.26 1.60 1.78 2.07 2.42 2.54 2.31 2.10 1.97 1.79 1.77 1.91 2.08 2.13 2.13 2.13 2.13 2.05 2.15 2.39 2.55 2.66 2.90 3.03 2.93

GEFSSGP_prec_meanprecacc_300.txt.gz
Total_Precipitation_Accumulation
0.13 0.32 0.77 1.24 1.84 2.10 1.59 0.84 0.64 0.48 0.47 0.57 0.55 0.47 0.54 0.75 1.13 1.99 2.00 1.99 1.66 1.56 1.69 2.12 2.58 2.34 2.05 1.87 1.90 1.92 1.72 1.66 1.69 1.73 1.74 1.88 1.88 1.75 1.79 2.06 2.35 2.59 2.81 2.60 2.33 2.14 2.01 1.90 1.67
0.26 0.48 0.95 1.50 2.13 2.23 1.47 0.75 0.56 0.44 0.51 0.56 0.47 0.42 0.54 0.63 0.74 1.19 1.68 1.81 1.39 1.23 1.37 1.60 2.04 2.09 1.87 1.69 1.65 1.59 1.57 1.56 1.62 1.72 1.67 1.73 1.77 1.78 1.91 2.22 2.39 2.45 2.30 2.00 2.00 1.91 1.78 1.59 1.49
0.44 0.68 1.07 1.51 1.58 1.50 0.90 0.49 0.42 0.40 0.53 0.56 0.48 0.49 0.66 0.91 1.02 1.28 1.41 1.34 1.13 1.07 1.24 1.57 1.86 1.80 1.67 1.57 1.49 1.40 1.40 1.49 1.58 1.60 1.61 1.71 1.73 1.81 2.03 2.25 2.29 2.14 1.86 1.75 1.80 1.69 1.58 1.34 1.24
0.58 0.82 1.05 1.16 1.03 0.81 0.55 0.41 0.37 0.40 0.53 0.50 0.48 0.71 0.97 1.15 1.03 1.08 1.08 1.02 0.93 0.99 1.22 1.53 1.62 1.40 1.34 1.34 1.28 1.25 1.29 1.46 1.52 1.46 1.60 1.73 1.80 1.81 1.90 1.95 1.99 1.88 1.65 1.60 1.53 1.41 1.36 1.24 1.15
0.65 0.94 1.14 0.97 0.73 0.55 0.44 0.39 0.38 0.38 0.39 0.49 0.60 0.98 1.34 1.36 0.97 1.00 1.02 0.89 0.79 0.99 1.20 1.30 1.35 1.19 1.09 1.15 1.14 1.17 1.30 1.50 1.53 1.47 1.51 1.58 1.64 1.69 1.68 1.64 1.68 1.71 1.56 1.43 1.38 1.33 1.23 1.25 1.19
0.75 0.87 0.85 0.70 0.53 0.39 0.42 0.40 0.35 0.35 0.42 0.52 0.66 0.84 1.47 1.47 1.13 1.22 1.12 1.04 0.96 1.05 1.16 1.29 1.31 1.15 1.06 1.08 1.08 1.13 1.37 1.60 1.57 1.44 1.43 1.42 1.42 1.45 1.47 1.51 1.56 1.60 1.47 1.34 1.29 1.25 1.17 1.13 1.14
0.56 0.66 0.58 0.44 0.39 0.36 0.35 0.32 0.32 0.35 0.51 0.62 0.71 0.99 1.64 1.79 1.40 1.27 1.29 1.30 1.16 1.25 1.44 1.39 1.23 1.17 1.25 1.33 1.37 1.42 1.63 1.70 1.60 1.55 1.47 1.40 1.33 1.33 1.39 1.39 1.44 1.46 1.38 1.32 1.22 1.20 1.14 1.07 1.08
0.40 0.38 0.33 0.25 0.24 0.32 0.27 0.25 0.29 0.38 0.54 0.68 0.84 1.17 1.80 1.80 1.45 1.35 1.40 1.57 1.43 1.37 1.37 1.33 1.16 1.13 1.20 1.45 1.77 1.78 1.77 1.77 1.72 1.63 1.55 1.43 1.33 1.38 1.43 1.30 1.47 1.47 1.46 1.42 1.43 1.52 1.28 1.19 1.25
0.26 0.31 0.25 0.20 0.18 0.24 0.22 0.22 0.28 0.41 0.55 0.66 0.94 1.17 1.35 1.30 1.37 1.37 1.58 1.91 1.94 1.68 1.55 1.37 1.09 1.16 1.38 1.65 1.77 1.85 1.85 1.96 2.03 1.97 1.83 1.78 1.90 1.88 1.98 1.72 1.97 1.89 1.85 1.77 1.83 1.89 1.71 1.61 1.50
0.20 0.23 0.21 0.16 0.14 0.17 0.16 0.18 0.29 0.56 0.74 1.03 1.32 1.30 1.14 1.13 1.35 1.50 1.74 2.14 2.23 2.09 1.87 1.63 1.38 1.40 1.63 1.64 1.65 1.78 1.81 1.96 2.09 2.20 2.13 2.44 2.71 2.59 2.03 2.26 2.59 2.63 2.51 2.37 2.43 2.56 2.28 1.98 1.75
0.12 0.14 0.13 0.14 0.12 0.12 0.12 0.18 0.25 0.43 0.95 1.49 1.74 1.68 1.48 1.28 1.48 1.84 2.24 2.55 2.32 2.11 2.04 1.98 1.80 1.76 1.67 1.72 1.70 1.90 2.09 2.43 2.32 2.22 2.26 2.74 2.65 2.36 2.14 2.41 2.83 3.12 2.89 2.71 2.79 2.92 2.47 2.51 2.74
0.08 0.10 0.08 0.09 0.09 0.08 0.11 0.18 0.30 0.46 0.95 1.24 1.42 1.50 1.50 1.48 1.58 1.83 2.16 2.44 2.64 2.61 2.50 2.40 2.28 2.16 2.16 2.08 1.95 1.91 2.02 2.25 2.36 2.53 2.29 2.69 2.95 2.83 2.76 3.02 3.01 3.23 3.36 3.72 3.49 3.56 3.33 3.27 3.08
0.09 0.07 0.06 0.05 0.06 0.07 0.11 0.21 0.35 0.51 0.77 0.82 0.90 1.03 1.29 1.54 1.93 2.24 2.37 2.71 2.85 3.02 2.91 2.89 2.80 2.75 2.75 2.68 2.53 2.08 2.24 2.33 2.46 2.75 2.74 2.88 3.22 3.33 3.34 3.31 3.23 2.97 3.30 3.72 3.99 3.58 3.88 3.92 3.51
0.08 0.08 0.06 0.06 0.06 0.10 0.15 0.24 0.37 0.57 0.68 0.71 0.80 0.98 1.24 1.58 1.88 2.33 2.62 3.04 3.07 3.15 3.35 3.55 3.48 3.34 3.39 3.27 3.15 2.95 2.74 2.93 2.91 3.08 3.26 3.40 3.71 3.91 3.85 3.65 3.53 3.15 3.12 3.44 3.67 3.67 4.09 3.93 3.71
0.08 0.10 0.12 0.11 0.10 0.14 0.28 0.45 0.60 0.73 0.73 0.88 0.96 1.20 1.37 1.67 2.06 2.17 2.37 2.66 3.01 3.30 3.84 4.23 4.26 4.14 4.16 4.08 3.79 3.54 3.44 3.47 3.76 3.98 3.99 3.92 4.04 4.34 4.16 3.91 3.50 3.25 3.26 3.49 3.46 3.51 3.64 3.47 3.34
0.11 0.17 0.28 0.24 0.17 0.18 0.33 0.76 0.83 0.81 0.87 1.05 1.08 1.31 1.63 1.72 2.06 2.20 2.27 2.50 3.11 3.58 4.23 4.68 4.85 5.02 4.91 4.90 4.64 4.23 4.07 4.07 4.17 4.30 4.44 4.17 4.16 4.07 4.11 3.76 3.30 3.30 3.30 3.37 3.53 3.40 3.49 3.44 3.40
0.18 0.26 0.37 0.38 0.23 0.23 0.36 0.74 0.86 0.83 0.98 1.12 1.27 1.33 1.48 1.70 2.14 2.44 2.61 2.76 3.29 3.90 4.63 5.22 5.80 6.01 5.85 5.55 5.18 4.83 4.76 4.65 4.51 4.54 4.53 4.30 4.01 3.83 4.04 3.70 3.47 3.37 3.34 3.24 3.00 3.46 3.64 3.61 3.56
0.25 0.27 0.35 0.43 0.26 0.25 0.43 0.66 0.88 0.96 1.09 1.24 1.27 1.27 1.41 1.73 1.96 2.33 2.69 3.08 3.52 3.96 4.76 5.55 6.30 6.50 6.21 5.66 5.34 5.26 5.09 4.79 4.56 4.34 4.19 3.94 3.76 3.46 3.69 3.40 3.29 3.39 3.54 3.39 3.41 3.75 3.79 3.44 3.47
0.17 0.22 0.33 0.38 0.26 0.29 0.46 0.66 0.88 1.03 1.18 1.23 1.38 1.36 1.56 1.82 1.98 2.38 2.76 3.23 3.68 4.19 4.95 5.65 6.25 6.33 6.20 5.83 5.45 5.21 4.76 4.45 4.17 3.91 3.71 3.47 3.18 3.06 3.44 3.19 3.54 3.35 3.31 3.17 3.12 3.26 3.33 2.99 3.16
0.14 0.22 0.36 0.38 0.26 0.30 0.50 0.74 1.02 1.09 1.06 1.06 1.28 1.35 1.42 1.62 1.92 2.30 2.84 3.16 3.52 4.05 4.62 5.06 5.15 4.92 4.85 4.89 4.79 4.54 4.55 4.37 4.30 4.12 3.97 3.44 3.23 3.11 2.93 3.17 2.99 2.95 3.08 2.89 2.82 3.02 3.04 2.73 3.01
0.13 0.21 0.27 0.31 0.32 0.39 0.57 0.96 1.24 1.24 1.04 0.96 0.99 1.09 1.20 1.33 1.54 1.90 2.49 2.83 3.03 3.53 3.87 3.91 3.85 3.80 3.94 4.02 3.96 4.00 4.26 4.33 4.39 4.32 4.08 3.65 3.42 3.25 3.10 3.01 2.83 2.78 2.62 2.79 2.82 2.86 2.98 2.96 2.84
0.14 0.14 0.16 0.20 0.31 0.60 0.69 1.19 1.51 1.59 1.40 1.11 0.99 1.10 1.16 1.25 1.30 1.61 1.95 2.21 2.50 2.77 2.89 2.88 2.98 3.12 3.26 3.36 3.38 3.25 3.28 3.56 3.82 4.04 4.12 3.98 3.70 3.44 3.13 2.94 2.72 2.57 2.43 2.74 2.43 2.54 2.87 3.08 2.76
0.10 0.10 0.13 0.19 0.30 0.49 0.62 0.93 1.44 1.77 1.78 1.37 1.09 1.00 0.96 1.09 1.33 1.54 1.67 1.86 1.97 2.03 2.14 2.18 2.48 2.91 3.11 3.24 3.39 3.29 2.96 2.97 3.05 3.21 3.40 3.39 3.38 3.19 2.84 2.74 2.67 2.49 2.35 2.41 2.40 2.71 2.73 2.72 2.65
0.10 0.16 0.25 0.38 0.57 0.85 0.76 0.85 1.32 1.57 1.65 1.30 1.07 0.97 0.86 0.86 1.04 1.27 1.56 1.68 1.66 1.63 1.76 1.96 2.28 2.79 3.09 3.23 3.18 3.16 3.08 3.07 2.99 2.98 3.07 2.96 2.92 2.85 2.59 2.46 2.55 2.41 2.33 2.39 2.40 2.52 2.57 2.72 2.78
0.12 0.22 0.62 1.07 1.40 1.44 0.87 0.84 1.08 1.11 1.05 1.04 0.90 0.85 0.89 0.82 0.81 0.82 1.03 1.30 1.28 1.25 1.43 1.69 1.89 2.30 2.61 2.82 2.77 2.71 2.84 2.93 2.78 2.63 2.59 2.55 2.40 2.33 2.29 2.33 2.45 2.31 2.28 2.37 2.53 2.59 2.56 2.68 2.74
0.13 0.18 0.47 0.81 1.00 1.11 0.95 1.29 1.37 1.02 0.85 0.76 0.64 0.63 0.72 0.67 0.62 0.60 0.67 0.85 1.09 1.12 1.21 1.33 1.57 1.85 2.11 2.28 2.41 2.51 2.69 2.77 2.68 2.83 2.58 2.45 2.14 2.00 2.06 2.27 2.33 2.26 2.18 2.20 2.64 2.63 2.65 2.75 2.71
0.15 0.15 0.22 0.35 0.52 0.82 1.11 1.32 1.27 1.05 0.99 0.78 0.60 0.54 0.55 0.54 0.53 0.53 0.60 0.80 0.87 0.90 1.00 1.15 1.36 1.53 1.75 1.99 2.20 2.27 2.26 2.27 2.41 2.56 2.50 2.34 2.26 2.02 2.09 2.16 2.37 2.47 2.55 2.59 2.76 2.69 2.69 2.90 2.86
0.13 0.14 0.17 0.27 0.48 0.70 1.01 1.40 1.47 1.33 1.15 0.96 0.84 0.64 0.54 0.56 0.58 0.55 0.56 0.65 0.72 0.77 0.88 1.09 1.29 1.31 1.54 1.93 2.20 2.15 2.19 2.13 2.28 2.26 2.22 2.25 2.17 2.12 2.20 2.22 2.30 2.45 2.55 2.61 2.76 2.76 2.80 2.98 3.00
0.18 0.15 0.15 0.20 0.25 0.42 0.87 1.16 1.07 1.10 1.04 0.96 0.83 0.71 0.67 0.65 0.63 0.61 0.60 0.60 0.72 0.65 0.73 0.91 1.05 1.20 1.50 1.84 2.16 2.29 2.21 2.20 2.26 2.09 2.03 2.13 2.13 2.12 2.23 2.26 2.23 2.20 2.33 2.53 2.74 2.68 2.85 2.97 3.01
0.18 0.18 0.18 0.24 0.24 0.28 0.48 0.80 0.66 0.74 0.85 0.87 0.70 0.63 0.61 0.53 0.51 0.48 0.47 0.54 0.52 0.52 0.61 0.93 1.27 1.61 1.79 2.10 2.46 2.63 2.43 2.21 2.07 1.89 1.86 1.97 2.15 2.19 2.20 2.21 2.19 2.09 2.20 2.46 2.61 2.71 2.96 3.10 2.98

GEFSSGP_prec_meanprecacc_306.txt.gz
Total_Precipitation_Accumulation
0.14 0.37 0.86 1.34 1.94 2.18 1.65 0.87 0.69 0.51 0.47 0.58 0.55 0.47 0.54 0.75 1.15 2.02 2.07 2.09 1.72 1.60 1.74 2.21 2.67 2.41 2.10 1.93 1.98 1.98 1.76 1.71 1.74 1.78 1.78 1.92 1.92 1.80 1.85 2.11 2.42 2.66 2.88 2.65 2.37 2.18 2.08 1.99 1.75
0.31 0.64 1.11 1.61 2.25 2.30 1.51 0.78 0.62 0.46 0.51 0.57 0.48 0.42 0.54 0.63 0.74 1.22 1.75 1.91 1.44 1.26 1.42 1.72 2.15 2.15 1.92 1.73 1.73 1.67 1.64 1.62 1.67 1.77 1.70 1.76 1.82 1.82 1.97 2.29 2.47 2.53 2.36 2.05 2.04 1.96 1.84 1.66 1.57
0.55 0.87 1.26 1.67 1.70 1.57 0.95 0.51 0.44 0.41 0.54 0.57 0.49 0.49 0.67 0.92 1.03 1.31 1.46 1.39 1.16 1.09 1.29 1.73 1.95 1.86 1.71 1.61 1.54 1.46 1.48 1.54 1.62 1.64 1.66 1.76 1.78 1.87 2.09 2.33 2.38 2.22 1.93 1.81 1.85 1.74 1.64 1.41 1.32
0.68 0.98 1.17 1.25 1.09 0.85 0.58 0.43 0.38 0.41 0.54 0.50 0.48 0.71 0.99 1.17 1.04 1.10 1.12 1.05 0.94 1.00 1.28 1.66 1.69 1.44 1.36 1.36 1.31 1.28 1.33 1.50 1.56 1.51 1.66 1.78 1.86 1.89 2.00 2.06 2.10 1.98 1.73 1.66 1.59 1.46 1.42 1.30 1.21
0.78 1.11 1.27 1.02 0.76 0.57 0.46 0.40 0.38 0.38 0.39 0.49 0.60 0.99 1.38 1.42 1.00 1.03 1.05 0.91 0.80 1.02 1.27 1.38 1.41 1.22 1.11 1.17 1.16 1.18 1.32 1.52 1.57 1.51 1.56 1.62 1.68 1.75 1.75 1.72 1.77 1.81 1.64 1.50 1.43 1.36 1.27 1.30 1.23
0.94 0.99 0.94 0.73 0.56 0.41 0.43 0.41 0.36 0.36 0.43 0.52 0.67 0.85 1.51 1.55 1.19 1.27 1.15 1.09 1.00 1.12 1.23 1.36 1.38 1.19 1.09 1.11 1.11 1.14 1.37 1.61 1.59 1.47 1.45 1.44 1.44 1.48 1.51 1.56 1.64 1.67 1.52 1.39 1.35 1.29 1.21 1.18 1.18
0.77 0.77 0.63 0.47 0.41 0.38 0.36 0.33 0.33 0.37 0.52 0.63 0.71 1.01 1.69 1.90 1.50 1.34 1.34 1.36 1.23 1.32 1.49 1.44 1.27 1.21 1.29 1.37 1.40 1.43 1.64 1.72 1.62 1.58 1.49 1.42 1.36 1.36 1.43 1.44 1.52 1.53 1.43 1.37 1.28 1.25 1.18 1.12 1.13
0.51 0.46 0.38 0.28 0.27 0.34 0.28 0.26 0.31 0.40 0.55 0.69 0.84 1.18 1.84 1.88 1.55 1.42 1.44 1.61 1.48 1.42 1.40 1.36 1.19 1.17 1.23 1.47 1.80 1.82 1.79 1.80 1.75 1.67 1.59 1.46 1.37 1.42 1.48 1.36 1.55 1.57 1.55 1.49 1.50 1.58 1.32 1.23 1.30
0.32 0.38 0.33 0.24 0.20 0.27 0.25 0.24 0.29 0.42 0.56 0.67 0.95 1.18 1.37 1.36 1.43 1.40 1.61 1.94 1.97 1.72 1.57 1.40 1.11 1.19 1.41 1.67 1.81 1.89 1.89 2.00 2.07 2.01 1.88 1.83 1.93 1.92 2.01 1.76 2.05 2.01 1.98 1.88 1.92 1.96 1.77 1.67 1.55
0.27 0.29 0.26 0.19 0.16 0.19 0.19 0.20 0.30 0.57 0.75 1.04 1.33 1.33 1.19 1.19 1.38 1.52 1.76 2.16 2.26 2.12 1.90 1.65 1.40 1.42 1.67 1.68 1.67 1.80 1.83 2.01 2.13 2.23 2.15 2.46 2.75 2.62 2.06 2.31 2.68 2.77 2.66 2.51 2.54 2.63 2.34 2.04 1.82
0.17 0.18 0.16 0.17 0.15 0.13 0.13 0.19 0.26 0.44 0.96 1.50 1.76 1.72 1.54 1.32 1.50 1.86 2.25 2.57 2.36 2.14 2.06 1.99 1.82 1.79 1.70 1.76 1.74 1.92 2.12 2.48 2.36 2.26 2.33 2.79 2.69 2.41 2.18 2.46 2.93 3.26 3.02 2.78 2.88 3.00 2.53 2.56 2.82
0.13 0.13 0.10 0.11 0.11 0.10 0.12 0.19 0.31 0.46 0.96 1.25 1.44 1.52 1.53 1.50 1.60 1.84 2.17 2.45 2.65 2.63 2.53 2.42 2.31 2.20 2.18 2.10 1.98 1.93 2.06 2.30 2.41 2.59 2.39 2.74 2.98 2.86 2.80 3.06 3.09 3.32 3.43 3.76 3.54 3.63 3.40 3.32 3.14
0.13 0.10 0.08 0.07 0.08 0.09 0.12 0.22 0.36 0.52 0.78 0.84 0.92 1.04 1.30 1.56 1.95 2.25 2.38 2.72 2.85 3.03 2.92 2.90 2.83 2.78 2.77 2.70 2.55 2.09 2.26 2.37 2.50 2.81 2.80 2.92 3.25 3.36 3.37 3.35 3.29 3.05 3.36 3.77 4.04 3.63 3.94 3.97 3.55
0.11 0.11 0.08 0.09 0.09 0.12 0.16 0.25 0.38 0.59 0.69 0.72 0.81 0.99 1.25 1.59 1.89 2.34 2.63 3.06 3.08 3.16 3.36 3.56 3.50 3.36 3.41 3.29 3.17 2.97 2.76 2.95 2.95 3.13 3.31 3.45 3.75 3.94 3.88 3.69 3.58 3.22 3.17 3.48 3.71 3.71 4.15 3.98 3.74
0.10 0.12 0.15 0.14 0.12 0.15 0.29 0.47 0.61 0.74 0.74 0.89 0.97 1.20 1.38 1.68 2.06 2.18 2.38 2.68 3.02 3.31 3.86 4.24 4.27 4.15 4.17 4.10 3.81 3.56 3.48 3.51 3.79 4.02 4.05 3.99 4.11 4.41 4.20 3.94 3.54 3.30 3.30 3.53 3.50 3.56 3.70 3.51 3.40
0.14 0.21 0.32 0.26 0.19 0.20 0.35 0.78 0.85 0.83 0.88 1.06 1.08 1.31 1.63 1.72 2.07 2.21 2.28 2.51 3.12 3.59 4.24 4.69 4.85 5.02 4.92 4.91 4.65 4.26 4.12 4.13 4.21 4.34 4.50 4.22 4.20 4.13 4.16 3.79 3.33 3.33 3.32 3.41 3.57 3.45 3.55 3.49 3.46
0.22 0.30 0.39 0.40 0.25 0.24 0.38 0.76 0.88 0.84 1.00 1.13 1.27 1.33 1.48 1.70 2.14 2.45 2.61 2.76 3.30 3.90 4.63 5.22 5.81 6.02 5.86 5.56 5.20 4.87 4.81 4.70 4.55 4.58 4.57 4.35 4.04 3.86 4.08 3.73 3.49 3.40 3.37 3.27 3.04 3.51 3.68 3.65 3.60
0.29 0.29 0.37 0.44 0.27 0.26 0.46 0.69 0.90 0.97 1.10 1.25 1.28 1.27 1.41 1.73 1.96 2.34 2.70 3.09 3.53 3.96 4.77 5.55 6.31 6.50 6.21 5.67 5.36 5.30 5.14 4.84 4.60 4.40 4.31 3.99 3.81 3.50 3.74 3.44 3.32 3.42 3.58 3.43 3.46 3.80 3.83 3.47 3.50
0.18 0.24 0.35 0.39 0.27 0.31 0.49 0.68 0.90 1.05 1.20 1.25 1.38 1.37 1.56 1.83 1.99 2.39 2.77 3.23 3.68 4.20 4.96 5.66 6.25 6.34 6.21 5.84 5.47 5.24 4.79 4.48 4.21 3.95 3.79 3.52 3.24 3.11 3.48 3.23 3.57 3.37 3.34 3.20 3.16 3.32 3.38 3.03 3.20
0.15 0.23 0.38 0.40 0.28 0.33 0.52 0.75 1.04 1.10 1.07 1.07 1.28 1.36 1.43 1.63 1.93 2.30 2.85 3.17 3.53 4.06 4.64 5.06 5.15 4.92 4.85 4.90 4.80 4.55 4.56 4.40 4.34 4.17 4.02 3.49 3.28 3.16 2.97 3.20 3.02 2.98 3.11 2.92 2.85 3.06 3.07 2.76 3.04
0.14 0.21 0.28 0.33 0.35 0.43 0.62 1.00 1.28 1.27 1.06 0.97 1.00 1.10 1.21 1.34 1.55 1.91 2.51 2.85 3.04 3.55 3.90 3.92 3.86 3.80 3.95 4.02 3.97 4.02 4.28 4.35 4.43 4.38 4.13 3.69 3.47 3.31 3.14 3.04 2.84 2.80 2.64 2.81 2.84 2.88 3.00 2.99 2.87
0.15 0.16 0.19 0.23 0.36 0.66 0.76 1.28 1.59 1.66 1.44 1.14 1.01 1.11 1.18 1.27 1.32 1.63 1.98 2.23 2.52 2.80 2.94 2.93 3.00 3.14 3.27 3.36 3.38 3.26 3.29 3.57 3.84 4.07 4.15 4.01 3.74 3.50 3.18 2.98 2.75 2.59 2.45 2.76 2.45 2.56 2.89 3.10 2.79
0.12 0.12 0.17 0.25 0.36 0.56 0.68 1.00 1.55 1.85 1.83 1.43 1.14 1.05 1.00 1.15 1.36 1.55 1.68 1.87 1.98 2.05 2.18 2.24 2.52 2.93 3.14 3.26 3.40 3.30 2.98 2.99 3.07 3.23 3.42 3.42 3.43 3.25 2.90 2.77 2.70 2.51 2.37 2.43 2.42 2.73 2.75 2.74 2.68
0.11 0.17 0.26 0.40 0.60 0.91 0.81 0.90 1.43 1.67 1.72 1.34 1.12 1.03 0.94 0.92 1.07 1.28 1.57 1.69 1.67 1.64 1.79 2.01 2.33 2.84 3.14 3.27 3.21 3.18 3.10 3.08 3.01 3.00 3.09 2.99 2.97 2.91 2.66 2.50 2.59 2.44 2.36 2.41 2.42 2.55 2.61 2.75 2.82
0.13 0.24 0.64 1.09 1.43 1.49 0.91 0.88 1.13 1.20 1.09 1.08 0.94 0.90 0.96 0.89 0.85 0.84 1.05 1.32 1.31 1.27 1.45 1.71 1.92 2.34 2.64 2.85 2.81 2.74 2.87 2.95 2.80 2.65 2.61 2.57 2.43 2.38 2.34 2.39 2.50 2.34 2.32 2.42 2.57 2.62 2.60 2.73 2.78
0.13 0.19 0.49 0.83 1.03 1.16 1.03 1.36 1.43 1.06 0.88 0.79 0.68 0.71 0.81 0.73 0.65 0.62 0.68 0.87 1.11 1.14 1.23 1.36 1.59 1.88 2.14 2.32 2.45 2.55 2.73 2.81 2.71 2.85 2.61 2.48 2.16 2.03 2.10 2.31 2.37 2.30 2.22 2.25 2.68 2.67 2.69 2.80 2.76
0.15 0.16 0.24 0.37 0.54 0.87 1.16 1.37 1.31 1.08 1.01 0.81 0.65 0.60 0.60 0.57 0.54 0.55 0.61 0.82 0.89 0.93 1.02 1.17 1.37 1.57 1.80 2.03 2.25 2.33 2.31 2.31 2.45 2.59 2.53 2.37 2.29 2.05 2.12 2.19 2.41 2.51 2.60 2.64 2.79 2.72 2.73 2.94 2.90
0.15 0.16 0.20 0.30 0.50 0.73 1.05 1.46 1.56 1.37 1.16 0.98 0.89 0.69 0.58 0.59 0.59 0.56 0.57 0.67 0.73 0.79 0.90 1.10 1.30 1.33 1.57 1.96 2.24 2.21 2.27 2.19 2.33 2.29 2.25 2.30 2.22 2.16 2.23 2.25 2.34 2.50 2.60 2.65 2.80 2.79 2.82 3.00 3.02
0.19 0.17 0.18 0.24 0.27 0.44 0.92 1.22 1.12 1.12 1.05 0.98 0.86 0.76 0.70 0.67 0.65 0.62 0.61 0.61 0.74 0.67 0.75 0.92 1.07 1.23 1.54 1.90 2.23 2.37 2.30 2.26 2.31 2.14 2.08 2.19 2.19 2.16 2.26 2.29 2.29 2.27 2.38 2.57 2.79 2.72 2.86 2.98 3.03
0.19 0.19 0.20 0.27 0.27 0.30 0.50 0.82 0.67 0.76 0.87 0.89 0.74 0.68 0.64 0.55 0.53 0.50 0.48 0.54 0.54 0.55 0.65 0.96 1.29 1.65 1.85 2.18 2.53 2.69 2.48 2.26 2.12 1.94 1.90 2.02 2.19 2.23 2.24 2.26 2.25 2.15 2.24 2.50 2.66 2.75 2.99 3.12 3.01

GEFSSGP_prec_meanprecacc_312.txt.gz
Total_Precipitation_Accumulation
0.15 0.39 0.89 1.36 1.95 2.19 1.67 0.89 0.72 0.54 0.49 0.60 0.57 0.48 0.54 0.76 1.16 2.03 2.09 2.14 1.77 1.66 1.82 2.30 2.75 2.47 2.15 1.98 2.01 2.00 1.78 1.74 1.78 1.83 1.84 1.97 1.98 1.87 1.93 2.21 2.52 2.75 2.98 2.76 2.46 2.25 2.14 2.06 1.83
0.32 0.65 1.14 1.63 2.27 2.32 1.53 0.80 0.63 0.47 0.52 0.57 0.48 0.43 0.54 0.63 0.75 1.22 1.78 1.95 1.48 1.31 1.50 1.83 2.23 2.22 1.97 1.78 1.77 1.70 1.66 1.64 1.71 1.82 1.75 1.81 1.87 1.89 2.05 2.38 2.55 2.63 2.50 2.16 2.11 2.02 1.90 1.72 1.65
0.56 0.90 1.30 1.69 1.72 1.58 0.97 0.53 0.46 0.42 0.54 0.57 0.49 0.49 0.67 0.93 1.04 1.31 1.48 1.42 1.18 1.15 1.37 1.84 2.06 1.95 1.79 1.67 1.59 1.51 1.52 1.60 1.67 1.68 1.70 1.81 1.84 1.94 2.17 2.42 2.45 2.29 2.03 1.88 1.92 1.80 1.71 1.49 1.40
0.72 1.05 1.21 1.28 1.12 0.87 0.59 0.45 0.40 0.41 0.54 0.50 0.48 0.72 1.00 1.19 1.05 1.10 1.13 1.06 0.96 1.04 1.35 1.76 1.78 1.51 1.43 1.43 1.37 1.35 1.39 1.55 1.61 1.56 1.71 1.85 1.92 1.97 2.08 2.15 2.18 2.06 1.82 1.76 1.66 1.53 1.49 1.39 1.32
0.81 1.14 1.30 1.05 0.78 0.59 0.47 0.41 0.40 0.39 0.40 0.49 0.60 1.00 1.39 1.44 1.02 1.04 1.07 0.92 0.82 1.07 1.36 1.48 1.51 1.30 1.19 1.24 1.22 1.25 1.37 1.57 1.61 1.55 1.60 1.66 1.72 1.81 1.81 1.80 1.85 1.88 1.72 1.59 1.51 1.45 1.33 1.38 1.34
0.96 1.00 0.95 0.75 0.58 0.43 0.45 0.42 0.37 0.36 0.43 0.52 0.67 0.86 1.53 1.60 1.22 1.29 1.17 1.11 1.03 1.17 1.30 1.46 1.48 1.26 1.14 1.17 1.17 1.20 1.43 1.67 1.64 1.51 1.50 1.48 1.48 1.53 1.56 1.62 1.70 1.74 1.59 1.47 1.42 1.36 1.28 1.26 1.26
0.78 0.79 0.64 0.48 0.43 0.40 0.38 0.35 0.34 0.37 0.52 0.63 0.72 1.01 1.71 1.94 1.52 1.36 1.36 1.39 1.28 1.37 1.54 1.51 1.33 1.26 1.35 1.44 1.46 1.49 1.72 1.78 1.67 1.63 1.54 1.46 1.41 1.42 1.49 1.49 1.56 1.58 1.50 1.45 1.34 1.32 1.24 1.17 1.18
0.52 0.47 0.39 0.29 0.28 0.36 0.30 0.27 0.31 0.40 0.55 0.69 0.85 1.19 1.86 1.91 1.57 1.44 1.46 1.64 1.51 1.47 1.45 1.40 1.22 1.19 1.26 1.52 1.86 1.90 1.87 1.86 1.80 1.73 1.66 1.52 1.43 1.48 1.54 1.41 1.61 1.63 1.63 1.59 1.58 1.66 1.38 1.29 1.35
0.33 0.39 0.34 0.24 0.21 0.28 0.26 0.24 0.30 0.43 0.56 0.68 0.95 1.19 1.39 1.39 1.47 1.44 1.65 1.98 2.02 1.76 1.61 1.43 1.13 1.21 1.44 1.71 1.86 1.95 1.95 2.06 2.13 2.08 1.95 1.89 1.98 1.94 2.04 1.81 2.13 2.10 2.08 2.00 2.04 2.06 1.85 1.75 1.64
0.29 0.30 0.27 0.20 0.18 0.20 0.19 0.20 0.30 0.57 0.76 1.05 1.34 1.34 1.21 1.22 1.43 1.57 1.79 2.19 2.28 2.14 1.92 1.67 1.41 1.44 1.69 1.70 1.70 1.84 1.87 2.06 2.20 2.29 2.18 2.49 2.77 2.64 2.08 2.37 2.77 2.87 2.78 2.64 2.67 2.73 2.43 2.12 1.91
0.18 0.19 0.17 0.19 0.18 0.15 0.13 0.19 0.26 0.45 0.97 1.51 1.77 1.73 1.56 1.34 1.55 1.89 2.27 2.58 2.36 2.15 2.07 2.00 1.83 1.80 1.72 1.79 1.77 1.95 2.14 2.51 2.42 2.32 2.35 2.80 2.71 2.43 2.24 2.54 3.04 3.38 3.14 2.88 2.97 3.07 2.59 2.62 2.90
0.13 0.14 0.11 0.13 0.13 0.10 0.12 0.19 0.32 0.47 0.97 1.26 1.44 1.53 1.54 1.52 1.63 1.86 2.17 2.45 2.66 2.64 2.54 2.42 2.31 2.21 2.20 2.12 2.00 1.96 2.08 2.33 2.44 2.64 2.41 2.75 3.00 2.89 2.86 3.16 3.20 3.43 3.50 3.81 3.59 3.65 3.42 3.35 3.18
0.14 0.12 0.10 0.09 0.10 0.10 0.13 0.22 0.36 0.53 0.79 0.85 0.92 1.04 1.30 1.56 1.96 2.26 2.39 2.72 2.86 3.04 2.94 2.91 2.83 2.79 2.79 2.72 2.57 2.12 2.28 2.39 2.53 2.84 2.82 2.94 3.27 3.39 3.43 3.44 3.38 3.13 3.41 3.80 4.06 3.65 3.96 4.00 3.58
0.13 0.12 0.10 0.11 0.11 0.13 0.17 0.26 0.39 0.60 0.71 0.74 0.82 0.99 1.25 1.60 1.90 2.34 2.64 3.06 3.08 3.16 3.37 3.57 3.50 3.37 3.42 3.30 3.19 2.98 2.77 2.96 2.96 3.14 3.33 3.46 3.76 3.95 3.91 3.74 3.65 3.27 3.22 3.52 3.73 3.73 4.18 4.01 3.77
0.12 0.14 0.16 0.15 0.14 0.17 0.30 0.48 0.62 0.75 0.75 0.90 0.98 1.22 1.39 1.69 2.07 2.18 2.39 2.68 3.02 3.32 3.86 4.25 4.28 4.16 4.18 4.10 3.82 3.57 3.49 3.52 3.80 4.03 4.06 4.00 4.13 4.44 4.23 3.98 3.58 3.33 3.33 3.57 3.55 3.60 3.73 3.54 3.43
0.16 0.22 0.34 0.29 0.21 0.21 0.36 0.79 0.86 0.84 0.90 1.07 1.10 1.33 1.65 1.74 2.08 2.22 2.28 2.51 3.13 3.60 4.25 4.70 4.87 5.04 4.93 4.91 4.66 4.27 4.14 4.15 4.22 4.36 4.52 4.24 4.22 4.16 4.20 3.82 3.36 3.37 3.36 3.46 3.63 3.50 3.58 3.52 3.49
0.23 0.31 0.41 0.42 0.27 0.26 0.40 0.78 0.89 0.86 1.02 1.14 1.29 1.35 1.50 1.73 2.17 2.46 2.62 2.77 3.30 3.91 4.64 5.23 5.82 6.03 5.87 5.58 5.21 4.87 4.83 4.72 4.57 4.59 4.58 4.36 4.07 3.90 4.12 3.77 3.53 3.43 3.40 3.31 3.08 3.56 3.71 3.67 3.63
0.29 0.30 0.38 0.46 0.29 0.28 0.48 0.71 0.91 0.99 1.11 1.26 1.29 1.29 1.43 1.76 1.99 2.36 2.71 3.09 3.53 3.96 4.78 5.56 6.32 6.53 6.23 5.68 5.37 5.30 5.15 4.86 4.63 4.42 4.33 4.01 3.84 3.54 3.78 3.47 3.36 3.46 3.62 3.47 3.50 3.85 3.86 3.50 3.53
0.19 0.24 0.36 0.41 0.29 0.33 0.51 0.71 0.91 1.06 1.21 1.26 1.39 1.38 1.58 1.85 2.02 2.41 2.78 3.25 3.69 4.21 4.98 5.67 6.26 6.37 6.23 5.86 5.48 5.24 4.79 4.49 4.23 3.98 3.81 3.55 3.27 3.15 3.52 3.26 3.61 3.42 3.39 3.24 3.20 3.36 3.40 3.05 3.22
0.15 0.24 0.39 0.41 0.29 0.35 0.54 0.77 1.05 1.11 1.08 1.08 1.29 1.37 1.44 1.64 1.95 2.32 2.87 3.18 3.54 4.09 4.67 5.08 5.16 4.94 4.87 4.91 4.81 4.56 4.57 4.41 4.36 4.19 4.04 3.52 3.33 3.21 3.00 3.24 3.07 3.03 3.17 2.96 2.89 3.10 3.10 2.79 3.06
0.14 0.22 0.29 0.33 0.36 0.45 0.64 1.02 1.29 1.28 1.07 0.98 1.01 1.12 1.23 1.36 1.57 1.92 2.53 2.87 3.05 3.58 3.95 3.95 3.88 3.82 3.96 4.03 3.97 4.02 4.28 4.37 4.45 4.41 4.16 3.73 3.52 3.36 3.20 3.09 2.91 2.85 2.68 2.85 2.88 2.91 3.03 3.01 2.90
0.15 0.16 0.19 0.24 0.37 0.67 0.78 1.31 1.61 1.67 1.45 1.14 1.01 1.12 1.20 1.29 1.33 1.64 1.99 2.25 2.53 2.83 3.00 2.97 3.03 3.16 3.29 3.37 3.39 3.27 3.31 3.59 3.86 4.10 4.18 4.06 3.80 3.57 3.25 3.05 2.81 2.65 2.50 2.80 2.49 2.60 2.92 3.13 2.82
0.12 0.12 0.17 0.26 0.37 0.56 0.68 1.02 1.57 1.86 1.84 1.45 1.16 1.06 1.01 1.16 1.38 1.57 1.69 1.88 2.00 2.09 2.23 2.32 2.56 2.95 3.16 3.27 3.41 3.31 2.98 3.00 3.09 3.26 3.45 3.46 3.48 3.33 2.98 2.85 2.76 2.57 2.41 2.47 2.48 2.78 2.79 2.78 2.71
0.11 0.17 0.27 0.40 0.60 0.91 0.81 0.91 1.44 1.68 1.73 1.37 1.14 1.04 0.95 0.94 1.09 1.30 1.59 1.70 1.69 1.67 1.83 2.07 2.38 2.88 3.17 3.29 3.23 3.20 3.11 3.10 3.04 3.03 3.12 3.03 3.02 2.97 2.72 2.58 2.66 2.50 2.41 2.47 2.48 2.60 2.66 2.81 2.88
0.13 0.24 0.64 1.09 1.43 1.49 0.91 0.89 1.14 1.21 1.10 1.09 0.96 0.91 0.97 0.90 0.87 0.87 1.07 1.33 1.33 1.29 1.48 1.74 1.96 2.43 2.74 2.90 2.82 2.76 2.89 2.98 2.84 2.67 2.64 2.62 2.47 2.43 2.41 2.46 2.56 2.41 2.41 2.50 2.62 2.67 2.65 2.77 2.83
0.13 0.19 0.49 0.83 1.03 1.16 1.03 1.37 1.46 1.08 0.89 0.80 0.70 0.73 0.82 0.74 0.66 0.63 0.69 0.88 1.13 1.16 1.25 1.39 1.62 1.91 2.21 2.40 2.48 2.58 2.77 2.85 2.77 2.92 2.66 2.52 2.21 2.07 2.14 2.35 2.40 2.34 2.29 2.31 2.73 2.71 2.73 2.84 2.79
0.15 0.16 0.24 0.37 0.54 0.87 1.17 1.38 1.32 1.09 1.02 0.83 0.66 0.61 0.61 0.58 0.55 0.55 0.62 0.82 0.91 0.94 1.03 1.19 1.39 1.59 1.82 2.07 2.28 2.37 2.37 2.38 2.51 2.66 2.60 2.44 2.36 2.11 2.15 2.22 2.43 2.53 2.62 2.67 2.84 2.77 2.77 2.97 2.93
0.15 0.16 0.21 0.30 0.50 0.74 1.06 1.47 1.56 1.38 1.17 0.98 0.89 0.70 0.58 0.60 0.60 0.56 0.58 0.67 0.74 0.80 0.92 1.12 1.32 1.35 1.58 1.98 2.26 2.24 2.32 2.25 2.40 2.38 2.36 2.39 2.29 2.22 2.28 2.29 2.37 2.52 2.62 2.67 2.82 2.82 2.87 3.04 3.05
0.19 0.17 0.18 0.24 0.28 0.44 0.92 1.23 1.12 1.13 1.06 0.99 0.87 0.76 0.71 0.68 0.65 0.62 0.62 0.62 0.74 0.68 0.77 0.95 1.09 1.24 1.55 1.92 2.25 2.38 2.33 2.30 2.37 2.21 2.15 2.26 2.26 2.23 2.32 2.34 2.33 2.30 2.41 2.59 2.82 2.76 2.91 3.03 3.06
0.19 0.19 0.20 0.27 0.27 0.30 0.50 0.83 0.68 0.76 0.87 0.90 0.75 0.68 0.65 0.56 0.53 0.50 0.49 0.55 0.55 0.57 0.69 0.99 1.31 1.65 1.86 2.19 2.54 2.71 2.51 2.29 2.14 1.96 1.94 2.08 2.24 2.28 2.30 2.31 2.31 2.23 2.32 2.57 2.72 2.81 3.05 3.17 3.04

GEFSSGP_prec_meanprecacc_318.txt.gz
Total_Precipitation_Accumulation
0.16 0.39 0.90 1.37 1.97 2.22 1.70 0.93 0.74 0.56 0.51 0.61 0.57 0.49 0.55 0.78 1.20 2.12 2.18 2.21 1.84 1.73 1.90 2.38 2.83 2.55 2.22 2.03 2.05 2.04 1.82 1.81 1.87 1.94 1.96 2.06 2.07 2.00 2.07 2.34 2.64 2.90 3.12 2.89 2.60 2.33 2.21 2.13 1.90
0.33 0.66 1.14 1.63 2.28 2.33 1.55 0.82 0.66 0.49 0.52 0.57 0.49 0.43 0.55 0.64 0.78 1.29 1.88 2.04 1.57 1.39 1.56 1.89 2.31 2.29 2.03 1.83 1.82 1.75 1.72 1.71 1.81 1.96 1.86 1.90 1.98 2.01 2.17 2.50 2.68 2.79 2.64 2.25 2.22 2.08 1.96 1.80 1.73
0.56 0.91 1.30 1.70 1.73 1.60 0.99 0.56 0.47 0.42 0.54 0.57 0.49 0.49 0.68 0.95 1.07 1.36 1.56 1.51 1.28 1.22 1.43 1.90 2.13 2.00 1.85 1.73 1.66 1.58 1.60 1.67 1.78 1.83 1.79 1.90 1.95 2.07 2.29 2.56 2.59 2.43 2.15 1.97 2.01 1.88 1.78 1.55 1.46
0.72 1.05 1.22 1.29 1.13 0.89 0.61 0.47 0.41 0.42 0.54 0.50 0.48 0.73 1.02 1.22 1.07 1.13 1.19 1.14 1.03 1.12 1.44 1.86 1.88 1.59 1.48 1.49 1.46 1.43 1.47 1.64 1.71 1.67 1.81 1.97 2.07 2.13 2.23 2.29 2.30 2.19 1.92 1.84 1.74 1.63 1.57 1.46 1.38
0.82 1.15 1.31 1.07 0.80 0.62 0.49 0.42 0.40 0.39 0.40 0.49 0.60 1.01 1.42 1.48 1.04 1.07 1.10 0.96 0.88 1.16 1.50 1.63 1.69 1.43 1.27 1.31 1.30 1.35 1.47 1.66 1.70 1.64 1.68 1.79 1.90 1.97 1.94 1.92 1.96 1.98 1.82 1.71 1.62 1.57 1.44 1.48 1.43
0.97 1.01 0.96 0.76 0.59 0.46 0.46 0.43 0.37 0.36 0.43 0.52 0.67 0.87 1.56 1.64 1.25 1.32 1.19 1.14 1.11 1.24 1.39 1.55 1.62 1.40 1.26 1.25 1.26 1.31 1.55 1.80 1.75 1.61 1.60 1.60 1.59 1.62 1.67 1.74 1.83 1.85 1.69 1.58 1.54 1.50 1.41 1.40 1.36
0.79 0.80 0.65 0.49 0.45 0.41 0.39 0.35 0.34 0.37 0.52 0.63 0.72 1.02 1.74 1.97 1.55 1.38 1.39 1.43 1.35 1.43 1.61 1.58 1.42 1.37 1.46 1.53 1.56 1.59 1.84 1.94 1.80 1.74 1.65 1.57 1.51 1.53 1.60 1.57 1.65 1.67 1.59 1.56 1.47 1.45 1.37 1.29 1.27
0.52 0.48 0.40 0.30 0.30 0.37 0.31 0.27 0.31 0.40 0.56 0.70 0.86 1.20 1.88 1.94 1.60 1.47 1.50 1.70 1.58 1.52 1.51 1.46 1.29 1.28 1.35 1.61 1.94 2.01 2.01 1.99 1.90 1.82 1.76 1.61 1.52 1.57 1.64 1.48 1.67 1.69 1.71 1.67 1.69 1.77 1.48 1.38 1.44
0.33 0.39 0.34 0.25 0.22 0.29 0.26 0.24 0.30 0.43 0.57 0.68 0.96 1.19 1.40 1.41 1.49 1.46 1.68 2.03 2.07 1.79 1.65 1.47 1.17 1.27 1.50 1.76 1.91 2.03 2.05 2.16 2.23 2.18 2.03 1.97 2.03 1.99 2.09 1.86 2.19 2.16 2.15 2.07 2.11 2.13 1.94 1.85 1.73
0.29 0.31 0.28 0.20 0.18 0.21 0.20 0.20 0.30 0.58 0.76 1.05 1.35 1.35 1.22 1.25 1.46 1.59 1.82 2.23 2.32 2.17 1.95 1.70 1.45 1.49 1.74 1.73 1.75 1.91 1.95 2.16 2.29 2.39 2.26 2.55 2.82 2.67 2.10 2.40 2.81 2.92 2.84 2.71 2.74 2.81 2.52 2.21 2.00
0.19 0.20 0.17 0.19 0.18 0.15 0.13 0.20 0.27 0.45 0.97 1.52 1.78 1.74 1.58 1.38 1.58 1.92 2.30 2.61 2.39 2.17 2.08 2.03 1.85 1.83 1.75 1.84 1.83 2.02 2.22 2.61 2.50 2.40 2.41 2.85 2.75 2.47 2.27 2.58 3.08 3.43 3.19 2.92 3.02 3.14 2.68 2.69 2.97
0.13 0.15 0.12 0.13 0.13 0.11 0.13 0.19 0.32 0.48 0.98 1.26 1.45 1.54 1.56 1.55 1.68 1.90 2.19 2.48 2.67 2.65 2.55 2.44 2.33 2.23 2.22 2.15 2.05 2.01 2.13 2.38 2.49 2.69 2.45 2.79 3.05 2.95 2.91 3.21 3.24 3.47 3.54 3.86 3.64 3.72 3.50 3.43 3.25
0.14 0.12 0.10 0.09 0.10 0.10 0.13 0.22 0.37 0.53 0.80 0.86 0.93 1.06 1.33 1.62 2.04 2.31 2.41 2.74 2.86 3.05 2.95 2.92 2.85 2.81 2.81 2.74 2.59 2.14 2.31 2.42 2.56 2.88 2.86 2.99 3.35 3.48 3.50 3.50 3.42 3.17 3.45 3.85 4.13 3.73 4.04 4.07 3.65
0.14 0.13 0.10 0.11 0.11 0.13 0.17 0.26 0.39 0.61 0.71 0.74 0.83 1.02 1.29 1.65 1.96 2.39 2.66 3.07 3.10 3.18 3.38 3.59 3.52 3.40 3.43 3.32 3.21 3.00 2.80 2.99 2.99 3.17 3.36 3.53 3.87 4.06 4.00 3.81 3.70 3.31 3.25 3.56 3.79 3.79 4.26 4.10 3.84
0.13 0.14 0.17 0.16 0.14 0.17 0.31 0.49 0.63 0.76 0.77 0.91 0.99 1.23 1.42 1.72 2.10 2.21 2.40 2.69 3.04 3.34 3.88 4.27 4.30 4.19 4.20 4.12 3.84 3.59 3.52 3.55 3.82 4.06 4.10 4.07 4.22 4.55 4.33 4.06 3.65 3.38 3.38 3.63 3.62 3.65 3.81 3.61 3.49
0.16 0.23 0.34 0.29 0.21 0.22 0.37 0.80 0.87 0.85 0.90 1.07 1.10 1.34 1.67 1.76 2.10 2.23 2.30 2.52 3.13 3.62 4.27 4.71 4.88 5.05 4.94 4.93 4.68 4.29 4.17 4.19 4.25 4.39 4.56 4.29 4.29 4.24 4.29 3.91 3.44 3.42 3.40 3.51 3.70 3.56 3.66 3.60 3.57
0.24 0.32 0.42 0.43 0.27 0.27 0.41 0.79 0.90 0.87 1.03 1.15 1.30 1.36 1.51 1.74 2.18 2.47 2.64 2.77 3.31 3.92 4.67 5.25 5.84 6.05 5.89 5.60 5.24 4.90 4.86 4.77 4.61 4.62 4.62 4.41 4.11 3.94 4.18 3.86 3.62 3.50 3.46 3.36 3.13 3.61 3.77 3.75 3.70
0.30 0.31 0.39 0.47 0.29 0.29 0.49 0.72 0.92 0.99 1.12 1.27 1.31 1.30 1.44 1.77 2.00 2.37 2.72 3.10 3.53 3.98 4.80 5.58 6.34 6.55 6.25 5.70 5.40 5.32 5.18 4.90 4.67 4.46 4.37 4.05 3.87 3.58 3.83 3.53 3.43 3.54 3.69 3.53 3.56 3.91 3.92 3.57 3.61
0.19 0.25 0.36 0.41 0.29 0.34 0.51 0.71 0.92 1.06 1.21 1.26 1.40 1.38 1.58 1.86 2.03 2.42 2.79 3.25 3.69 4.23 5.02 5.69 6.28 6.39 6.24 5.88 5.51 5.27 4.83 4.54 4.28 4.01 3.85 3.58 3.31 3.20 3.58 3.30 3.67 3.51 3.47 3.30 3.26 3.44 3.47 3.13 3.30
0.15 0.24 0.40 0.41 0.30 0.36 0.54 0.78 1.05 1.11 1.08 1.08 1.29 1.37 1.44 1.64 1.95 2.32 2.87 3.19 3.55 4.12 4.72 5.10 5.18 4.97 4.89 4.94 4.85 4.57 4.59 4.45 4.40 4.23 4.08 3.55 3.36 3.25 3.05 3.29 3.14 3.12 3.26 3.03 2.96 3.17 3.17 2.85 3.14
0.14 0.22 0.29 0.34 0.36 0.45 0.65 1.03 1.29 1.28 1.07 0.98 1.01 1.12 1.23 1.37 1.57 1.92 2.53 2.87 3.06 3.60 3.97 3.97 3.93 3.86 3.99 4.07 4.00 4.04 4.31 4.40 4.50 4.46 4.20 3.76 3.56 3.43 3.26 3.16 2.99 2.94 2.76 2.92 2.95 2.98 3.09 3.09 2.98
0.15 0.16 0.19 0.24 0.37 0.68 0.79 1.32 1.62 1.67 1.45 1.14 1.01 1.12 1.20 1.29 1.33 1.64 2.00 2.25 2.54 2.84 3.02 3.00 3.11 3.22 3.31 3.40 3.41 3.30 3.33 3.61 3.90 4.14 4.22 4.10 3.84 3.62 3.32 3.11 2.88 2.72 2.56 2.86 2.55 2.67 2.98 3.20 2.89
0.12 0.12 0.17 0.26 0.37 0.57 0.69 1.03 1.58 1.86 1.84 1.45 1.16 1.06 1.02 1.16 1.38 1.57 1.69 1.88 2.00 2.10 2.26 2.34 2.60 3.01 3.19 3.30 3.44 3.34 3.01 3.03 3.13 3.30 3.50 3.52 3.52 3.37 3.03 2.91 2.83 2.65 2.48 2.53 2.53 2.84 2.86 2.83 2.76
0.11 0.17 0.27 0.40 0.61 0.91 0.82 0.92 1.45 1.68 1.73 1.37 1.14 1.05 0.95 0.94 1.09 1.31 1.59 1.70 1.69 1.68 1.84 2.07 2.38 2.91 3.21 3.33 3.26 3.23 3.14 3.15 3.08 3.08 3.18 3.09 3.09 3.03 2.78 2.62 2.71 2.58 2.50 2.55 2.56 2.66 2.73 2.86 2.91
0.13 0.24 0.65 1.09 1.44 1.49 0.91 0.89 1.15 1.21 1.10 1.10 0.96 0.92 0.97 0.91 0.87 0.88 1.07 1.34 1.33 1.30 1.49 1.75 1.97 2.44 2.79 2.97 2.86 2.80 2.94 3.05 2.90 2.72 2.68 2.67 2.54 2.49 2.48 2.52 2.62 2.48 2.52 2.60 2.72 2.75 2.73 2.84 2.88
0.13 0.19 0.50 0.84 1.03 1.16 1.03 1.37 1.47 1.08 0.89 0.80 0.70 0.73 0.83 0.74 0.67 0.63 0.70 0.89 1.14 1.17 1.26 1.39 1.63 1.92 2.25 2.47 2.54 2.62 2.80 2.90 2.82 2.99 2.71 2.58 2.26 2.12 2.19 2.40 2.45 2.40 2.36 2.39 2.82 2.80 2.80 2.90 2.84
0.15 0.16 0.24 0.37 0.54 0.87 1.17 1.38 1.33 1.10 1.02 0.83 0.66 0.61 0.61 0.58 0.56 0.56 0.63 0.83 0.91 0.95 1.04 1.20 1.40 1.60 1.83 2.09 2.33 2.41 2.40 2.41 2.56 2.72 2.65 2.48 2.39 2.14 2.18 2.25 2.46 2.57 2.66 2.71 2.89 2.81 2.82 3.02 2.97
0.15 0.16 0.21 0.30 0.50 0.74 1.06 1.47 1.57 1.38 1.17 0.99 0.89 0.70 0.58 0.60 0.60 0.57 0.58 0.67 0.74 0.81 0.92 1.13 1.32 1.36 1.59 1.99 2.28 2.27 2.36 2.28 2.43 2.40 2.39 2.42 2.32 2.24 2.30 2.31 2.39 2.55 2.65 2.70 2.86 2.86 2.91 3.08 3.09
0.19 0.17 0.18 0.24 0.28 0.44 0.93 1.23 1.13 1.13 1.06 0.99 0.87 0.77 0.71 0.68 0.66 0.62 0.62 0.62 0.75 0.69 0.78 0.96 1.09 1.25 1.56 1.93 2.26 2.40 2.35 2.31 2.38 2.22 2.16 2.27 2.28 2.26 2.34 2.36 2.35 2.32 2.43 2.63 2.87 2.81 2.96 3.07 3.10
0.19 0.19 0.20 0.27 0.27 0.30 0.50 0.83 0.68 0.76 0.88 0.90 0.75 0.68 0.65 0.57 0.54 0.50 0.49 0.55 0.55 0.57 0.69 0.99 1.31 1.66 1.87 2.19 2.55 2.72 2.52 2.30 2.15 1.97 1.95 2.09 2.25 2.30 2.33 2.34 2.33 2.24 2.34 2.61 2.76 2.85 3.09 3.22 3.09